[{"header": {"dx": 0.06612293990616946, "dy": 0.0552356325346848, "nx": 98, "ny": 59, "la1": 35.046912555036876, "la2": 31.78801023549047, "lo1": -121.43107172385933, "lo2": -114.95102361305473, "refTime": "2026041621", "parameterCategory": 1, "parameterNumber": 2}, "data": [10.72, 10.72, 10.4, 10.69, 10.69, 10.94, 11.23, 11.44, 11.72, 12.27, 12.16, 11.5, 12.7, 11.79, 10.89, 10.6, 10.69, 9.83, 9.39, 6.4, 1.84, 0.0, 0.0, 0.0, -1.19, -2.2, -3.22, -3.22, -2.76, -2.76, -3.22, -2.2, -1.08, 0.0, 1.08, 2.2, 3.63, 3.91, 4.89, 5.58, 6.8, 8.17, 10.46, 11.44, 13.86, 14.42, 14.92, 13.92, 12.74, 12.86, 12.94, 13.41, 13.41, 13.86, 14.28, 14.73, 15.12, 15.12, 15.56, 15.12, 14.99, 14.55, 13.92, 13.92, 14.15, 14.21, 14.64, 14.42, 14.33, 13.91, 13.23, 12.3, 12.3, 12.3, 11.79, 11.37, 11.61, 10.49, 10.6, 10.14, 9.35, 8.49, 7.6, 5.94, 2.23, 1.2, 2.8, 4.92, 6.71, 6.64, 6.0, 2.99, 1.75, 1.84, 2.7, 4.56, 4.5, 2.69, 10.75, 10.72, 10.72, 10.4, 10.69, 10.94, 11.28, 11.8, 11.8, 12.09, 11.35, 12.27, 11.64, 10.8, 11.62, 10.91, 9.68, 10.65, 9.74, 7.37, 4.74, 0.0, 0.0, 0.0, -0.96, -2.2, -2.2, -1.99, -2.99, -2.99, -1.99, -1.99, -0.96, 0.0, 0.96, 2.8, 2.82, 3.55, 3.97, 5.37, 6.91, 9.32, 10.24, 11.04, 13.19, 14.05, 13.23, 12.27, 11.51, 11.59, 12.04, 12.52, 12.96, 12.96, 13.86, 14.73, 15.18, 15.18, 15.56, 15.12, 14.99, 14.55, 14.4, 14.36, 14.4, 14.64, 14.64, 14.64, 14.64, 14.21, 13.72, 13.01, 12.53, 12.09, 11.61, 11.8, 11.36, 10.49, 10.6, 10.14, 9.35, 8.49, 7.6, 5.94, 2.23, 1.2, 2.8, 4.92, 6.71, 6.64, 6.0, 2.99, 1.75, 1.84, 2.7, 4.56, 4.5, 2.69, 10.75, 10.43, 10.72, 10.72, 10.72, 11.28, 11.28, 11.52, 11.8, 11.8, 11.72, 10.51, 11.64, 11.02, 10.27, 10.6, 10.18, 9.97, 9.42, 9.46, 5.58, 3.72, 0.0, 0.0, -1.63, -1.99, -1.99, -1.99, -1.99, -1.99, -1.14, -0.88, 0.0, 0.0, 1.72, 2.99, 2.67, 3.6, 3.45, 4.5, 6.24, 8.94, 10.66, 11.66, 12.23, 12.45, 12.09, 11.51, 11.59, 11.62, 11.62, 12.52, 12.96, 13.41, 13.41, 14.3, 15.18, 15.62, 15.56, 15.56, 15.01, 14.55, 14.55, 14.4, 14.84, 14.84, 14.84, 14.87, 14.84, 14.4, 14.09, 13.18, 12.27, 11.95, 11.51, 11.51, 11.05, 11.05, 9.72, 9.79, 8.9, 8.05, 6.71, 4.92, 0.99, 0.0, 1.8, 5.4, 6.2, 5.94, 3.72, 1.84, 1.75, 1.75, 3.63, 5.1, 4.68, 1.95, 10.75, 10.75, 10.43, 10.72, 10.72, 10.72, 11.28, 11.52, 11.87, 11.8, 11.44, 11.16, 12.03, 10.48, 10.55, 10.73, 10.32, 10.5, 10.18, 9.24, 8.17, 6.44, 1.98, 0.0, -1.05, -1.73, -1.84, -1.14, -1.05, 0.0, 0.0, 0.0, 0.0, 1.73, 2.82, 3.15, 2.83, 3.87, 3.36, 5.14, 7.36, 9.17, 10.63, 11.26, 11.5, 11.37, 11.36, 11.51, 11.59, 12.07, 12.07, 12.96, 13.41, 13.41, 13.86, 14.3, 15.2, 15.65, 15.62, 15.62, 15.12, 15.11, 14.55, 14.55, 14.55, 14.99, 15.01, 14.9, 14.93, 14.47, 14.09, 12.86, 11.51, 10.62, 10.7, 10.73, 10.73, 9.83, 9.35, 8.45, 7.55, 6.88, 4.98, 3.72, 3.13, 2.84, 3.48, 4.98, 5.26, 3.72, 1.75, 1.84, 1.84, 2.69, 4.5, 5.53, 4.42, 0.94, 10.75, 10.75, 10.43, 10.43, 10.72, 10.72, 10.99, 11.33, 11.87, 12.09, 11.8, 10.88, 11.64, 11.2, 10.4, 10.4, 10.15, 10.0, 9.6, 9.36, 9.32, 6.98, 4.56, 0.0, 0.0, 0.0, 0.0, 0.0, 0.0, 0.0, 0.96, 1.98, 3.0, 3.72, 4.83, 2.99, 2.99, 4.2, 4.13, 5.06, 6.7, 8.53, 9.4, 10.04, 10.85, 11.11, 11.36, 11.51, 11.96, 12.41, 12.86, 12.86, 13.38, 13.83, 14.28, 14.73, 14.73, 15.2, 15.65, 15.2, 14.75, 14.28, 14.21, 14.21, 14.55, 14.66, 14.55, 14.4, 14.21, 14.15, 13.23, 12.53, 10.32, 10.14, 9.83, 8.94, 8.94, 8.05, 7.15, 7.15, 5.59, 2.99, 1.03, 1.03, 1.99, 3.48, 4.8, 4.65, 3.0, 1.95, 1.75, 1.75, 1.75, 3.6, 5.24, 5.69, 3.55, 0.94, 10.45, 10.75, 10.75, 10.43, 10.43, 10.72, 11.33, 11.33, 11.58, 12.45, 11.87, 11.23, 11.25, 10.79, 10.8, 10.4, 10.0, 10.2, 9.05, 9.43, 9.16, 7.41, 4.6, 1.58, 0.0, 0.0, 0.0, 0.0, 0.0, 0.0, 0.95, 2.64, 4.58, 6.82, 6.44, 4.11, 2.76, 2.2, 0.89, 1.76, 4.4, 6.58, 7.81, 9.36, 9.75, 10.41, 10.89, 11.33, 11.8, 11.84, 12.27, 12.71, 12.74, 12.86, 13.32, 13.76, 14.28, 14.28, 14.75, 14.3, 13.41, 12.94, 13.31, 13.76, 14.09, 14.09, 13.01, 12.3, 12.98, 13.11, 12.98, 11.92, 10.85, 10.41, 9.35, 8.05, 7.15, 6.26, 5.73, 5.26, 1.19, -0.0, -0.0, 0.89, 0.89, 1.84, 2.99, 2.67, 1.95, 1.75, 0.89, 1.75, 2.83, 4.68, 6.11, 5.84, 2.82, -0.0, 10.45, 10.45, 10.75, 10.75, 10.43, 10.43, 11.03, 11.33, 11.92, 12.16, 11.87, 10.36, 11.25, 10.29, 11.6, 10.4, 10.55, 10.8, 10.0, 9.3, 9.9, 10.04, 8.18, 3.97, 1.98, 2.4, 4.4, 3.16, 0.0, 0.0, 1.49, 2.82, 5.37, 7.82, 8.0, 6.8, 4.29, 3.58, -5.81, -2.2, 0.0, 5.21, 6.94, 8.05, 8.49, 8.49, 9.39, 9.83, 9.8, 11.11, 11.18, 10.73, 11.62, 12.04, 12.49, 12.96, 12.96, 13.41, 13.41, 13.41, 12.49, 11.95, 12.41, 12.74, 12.53, 12.04, 11.6, 11.02, 11.92, 12.45, 12.45, 11.79, 11.23, 11.05, 9.24, 7.54, 6.17, 5.7, 4.98, -0.0, -1.98, -1.96, -0.0, -0.0, 1.01, 0.83, 1.84, 2.67, 1.84, 1.84, 1.55, 2.26, 3.77, 5.37, 6.18, 4.58, 1.96, -0.0, 10.76, 10.45, 10.45, 10.75, 10.75, 10.75, 11.03, 11.03, 11.63, 11.92, 11.58, 10.09, 10.65, 10.37, 11.5, 10.23, 10.94, 11.5, 10.8, 10.04, 10.4, 10.68, 11.79, 10.45, 8.05, 6.4, 4.74, 4.74, 6.07, 5.21, 2.82, 3.15, 4.37, 6.98, 7.35, 8.14, 6.02, -0.0, -3.47, -2.0, -0.0, 3.48, 6.0, 6.52, 7.28, 8.18, 8.8, 9.66, 9.24, 10.47, 9.49, 10.58, 11.05, 11.59, 12.07, 12.07, 12.52, 12.52, 12.52, 12.07, 11.59, 11.14, 11.05, 10.32, 9.4, 10.01, 11.04, 10.96, 11.37, 12.09, 12.53, 12.41, 12.04, 10.73, 9.35, 6.98, 6.36, 5.51, 4.4, -0.0, -3.63, -3.47, -1.7, -0.0, -0.0, 0.88, 1.6, 2.12, 1.84, 1.96, 1.72, 2.29, 5.06, 5.84, 5.49, 3.0, 0.89, -0.0, 10.76, 10.45, 10.45, 10.45, 10.45, 10.75, 10.75, 11.36, 11.96, 11.96, 11.33, 9.8, 10.75, 9.48, 10.03, 10.12, 10.41, 10.66, 11.02, 10.18, 9.86, 10.8, 11.14, 11.76, 9.35, 6.01, 3.91, 4.83, 7.47, 7.6, 5.21, 4.47, 4.92, 5.94, 6.2, 7.6, 7.45, 2.82, 1.49, 2.66, 4.29, 4.29, 5.37, 6.63, 7.81, 7.41, 9.46, 10.24, 9.43, 10.0, 10.62, 10.18, 10.89, 11.51, 11.59, 12.07, 12.07, 12.04, 11.59, 11.14, 10.28, 8.77, 7.2, 6.83, 7.78, 10.01, 11.6, 11.79, 11.8, 11.96, 12.96, 12.52, 12.94, 10.7, 8.94, 7.6, 6.64, 5.7, 3.16, -0.0, -2.4, -4.54, -3.93, -2.84, -0.87, -0.0, -0.0, -0.0, -0.0, 0.96, 1.83, 2.53, 4.11, 5.06, 4.58, 1.96, 0.89, 0.89, 10.45, 10.45, 10.45, 10.45, 10.45, 10.45, 10.76, 11.38, 11.67, 11.96, 11.36, 10.43, 9.77, 9.13, 10.3, 9.26, 8.85, 8.85, 9.76, 8.82, 7.9, 7.9, 8.49, 8.0, 5.51, 1.63, 3.0, 4.29, 6.08, 7.45, 5.21, -0.0, 1.58, 2.99, 5.69, 6.9, 6.9, 4.26, 5.21, 6.01, 6.01, 6.82, 6.18, 6.6, 6.82, 6.73, 7.76, 8.79, 9.43, 10.0, 9.9, 9.9, 9.75, 9.97, 10.14, 10.25, 10.28, 10.25, 10.14, 9.24, 7.1, 4.68, 5.0, 5.63, 7.78, 9.66, 11.2, 11.52, 11.53, 12.52, 13.18, 12.92, 11.95, 10.25, 8.19, 6.65, 5.36, 3.72, -0.0, -0.0, -0.0, -0.98, -4.57, -4.38, -3.9, -2.98, -2.21, -1.4, -0.0, -0.0, 1.13, 2.0, 2.99, 3.72, 3.97, 1.96, 0.89, 0.89, 10.13, 10.13, 10.13, 10.13, 10.45, 10.45, 10.76, 11.38, 11.99, 11.67, 11.36, 10.75, 10.43, 10.69, 11.95, 10.63, 9.69, 6.23, 6.32, 6.8, 9.42, 8.55, 7.96, 4.4, -0.0, -0.0, -0.0, 1.52, 3.72, 5.06, 4.56, 1.96, 1.96, 3.72, 4.74, 6.52, 6.63, 6.3, 5.89, 7.76, 8.05, 7.82, 6.44, 6.28, 5.69, 5.24, 6.32, 7.81, 8.18, 8.18, 8.12, 7.68, 7.76, 7.06, 7.15, 7.15, 7.76, 8.05, 7.12, 4.77, 1.84, 2.61, 4.06, 5.93, 7.24, 9.26, 10.01, 10.96, 12.04, 12.71, 12.98, 11.99, 10.48, 8.63, 6.94, 4.8, 2.68, -0.0, -1.19, -0.0, 0.88, 0.88, -0.0, -5.36, -5.36, -4.47, -3.58, -3.13, -2.68, -1.9, -0.0, -0.0, 1.05, 3.22, 3.0, 1.84, 0.95, 1.01, 9.84, 10.13, 10.13, 10.13, 10.45, 10.76, 11.08, 11.08, 11.99, 11.67, 11.36, 10.75, 10.75, 11.63, 12.37, 12.03, 10.91, 9.51, 9.39, 9.14, 9.7, 10.22, 9.39, 10.66, 6.52, 3.47, -0.0, 0.65, 2.2, 3.47, 4.29, 4.22, 4.22, 4.58, 5.49, 5.77, 6.39, 7.06, 7.81, 8.8, 8.8, 7.44, 5.69, 5.31, 4.14, 3.55, 5.59, 5.86, 5.86, 5.21, 5.21, 5.06, 5.06, 4.4, 3.49, 3.49, 5.36, 5.73, 1.41, -2.2, -0.0, 2.41, 4.0, 4.81, 5.8, 7.25, 8.18, 9.34, 9.66, 10.25, 8.88, 7.64, 5.59, 4.87, 2.99, 0.0, -3.13, -3.72, -1.98, -0.0, 2.48, 2.2, -0.0, -3.82, -4.92, -5.29, -4.82, -3.9, -4.02, -3.47, -2.98, -1.13, -0.0, 1.19, 2.16, 1.03, 1.03, 0.95, 9.84, 9.84, 9.84, 10.13, 10.47, 10.47, 10.77, 11.08, 11.38, 11.38, 11.36, 11.03, 11.36, 11.67, 13.09, 13.75, 13.82, 13.51, 13.1, 12.75, 12.91, 12.95, 13.4, 12.47, 10.6, 6.94, 2.91, 1.26, 0.57, 1.58, 3.79, 4.29, 4.58, 5.37, 5.37, 6.11, 6.39, 7.44, 7.82, 8.4, 7.82, 5.69, 4.16, 3.47, 3.2, 3.2, 4.14, 3.8, 3.8, 3.8, 3.09, 3.09, 2.4, 1.58, 1.26, 2.7, 4.05, 6.8, 1.4, -2.69, -0.0, 2.47, 3.34, 3.23, 4.24, 4.98, 6.0, 5.93, 6.04, 4.58, 0.0, -1.84, -1.03, 0.0, -1.19, -3.72, -4.47, -4.02, -2.24, 1.79, 2.97, 2.73, -0.0, -0.0, -1.27, -4.47, -5.4, -4.66, -4.85, -4.92, -4.02, -2.8, -1.4, -0.0, -0.0, -0.0, 1.05, 1.03, 9.84, 9.84, 10.13, 10.13, 10.47, 10.77, 10.77, 11.08, 11.38, 11.06, 11.06, 11.06, 11.06, 11.67, 12.56, 13.3, 14.29, 14.73, 14.9, 14.64, 14.47, 14.2, 13.85, 13.41, 12.06, 10.27, 6.68, 3.98, 2.17, 1.7, 2.4, 3.79, 5.37, 4.58, 5.37, 5.69, 5.69, 7.44, 8.17, 7.2, 5.06, 3.47, 3.49, 3.22, 2.6, 3.0, 2.64, 2.99, 2.82, 2.82, 2.66, 2.66, 1.32, 1.4, 1.4, 2.47, 6.01, 8.91, 7.89, -0.0, -0.0, 1.17, 2.54, 2.54, 2.44, 3.42, 3.76, 3.69, 5.69, 4.5, -1.4, -5.58, -4.74, -3.91, -4.65, -4.47, -4.02, -2.21, -0.0, 2.21, 3.72, 4.29, 2.23, -0.0, 0.81, -0.0, -4.02, -5.7, -5.29, -5.29, -4.92, -4.02, -2.97, -2.8, -1.2, -0.0, -0.0, -0.0, 9.49, 10.13, 10.13, 10.13, 10.47, 10.77, 10.77, 10.77, 11.38, 11.06, 11.06, 11.06, 11.67, 11.67, 12.27, 12.8, 14.13, 14.82, 15.23, 15.21, 14.64, 14.34, 14.13, 13.36, 12.5, 11.18, 9.39, 6.71, 4.92, 4.02, 3.07, 2.91, 5.36, 5.37, 5.69, 5.59, 6.64, 7.15, 8.4, 4.54, 2.76, 3.0, 3.22, 3.22, 2.6, 2.49, 1.49, 2.82, 2.66, 3.0, 2.8, 1.41, 1.52, 3.47, 3.47, 4.74, 6.8, 8.14, 8.67, 4.9, 1.63, 1.33, 2.49, 2.49, 2.6, 2.82, 2.82, 4.4, 6.95, 8.8, 4.47, -3.22, -5.95, -5.37, -4.02, -0.0, 2.16, 3.72, 4.74, 5.24, 5.58, 6.0, 4.57, 2.24, 1.79, 1.19, -0.0, -3.58, -3.58, -4.92, -5.81, -4.92, -3.58, -2.4, -3.2, -0.0, -0.0, -0.0, 9.77, 10.13, 10.13, 10.13, 10.47, 10.47, 10.47, 10.47, 10.47, 10.76, 11.06, 11.38, 11.67, 11.67, 11.67, 12.56, 13.66, 14.4, 15.07, 15.14, 14.72, 14.48, 14.31, 13.65, 12.4, 11.61, 10.28, 8.49, 7.15, 6.71, 5.81, 4.89, 4.77, 6.52, 5.69, 4.56, 6.32, 6.45, 6.28, 2.6, 1.7, 1.84, 2.66, 1.49, 1.49, 2.82, 2.82, 2.66, 2.66, 2.66, 3.0, 2.8, 3.22, 3.22, 4.84, 6.07, 7.01, 7.89, 7.9, 6.24, 3.45, 4.14, 2.82, 2.66, 3.4, 2.99, 3.72, 6.32, 8.18, 8.91, 4.98, -2.6, -5.58, -4.34, -0.0, 4.4, 6.57, 7.9, 8.42, 8.43, 8.17, 8.06, 6.71, 3.82, -2.21, -3.13, -0.0, -0.0, -0.0, -2.53, -4.92, -4.02, -1.98, -0.98, -0.98, -0.0, -0.0, -0.0, 9.48, 9.48, 10.13, 10.13, 10.13, 10.47, 10.47, 10.47, 10.47, 10.76, 11.38, 11.38, 11.99, 11.99, 11.67, 12.56, 13.09, 13.58, 14.03, 14.67, 14.73, 14.3, 14.16, 13.54, 12.84, 12.06, 11.16, 10.28, 9.39, 8.47, 8.05, 6.71, 5.81, 7.06, 4.81, 4.65, 4.68, 4.37, 3.4, 2.66, 1.4, 0.83, 1.32, 1.73, 2.69, 3.8, 4.37, 3.91, 2.49, 3.0, 3.0, 3.0, 4.02, 4.74, 5.72, 6.0, 6.64, 6.9, 6.63, 6.98, 6.63, 5.72, 4.84, 3.79, 4.11, 2.95, 4.74, 6.08, 7.89, 8.38, 4.43, -3.35, -4.47, -0.0, 4.17, 8.45, 10.12, 11.28, 10.66, 10.0, 9.24, 8.56, 7.15, 3.16, -1.27, -4.02, -2.84, -0.0, -0.0, -0.0, -2.98, -3.58, -1.84, -0.0, -0.0, -0.0, -0.0, -0.0, 9.48, 9.48, 10.13, 10.13, 10.13, 10.47, 10.47, 10.47, 10.47, 10.47, 11.38, 11.38, 11.99, 11.99, 11.67, 12.22, 13.09, 13.66, 14.03, 14.15, 14.22, 14.03, 13.99, 13.1, 12.84, 12.46, 11.57, 10.67, 10.14, 9.68, 8.77, 7.51, 6.23, 5.34, 4.6, 4.74, 2.8, 3.2, 2.82, 1.49, 1.32, 1.32, 1.49, 1.58, 3.8, 5.59, 6.01, 4.29, 1.52, 1.52, 3.0, 4.29, 4.29, 4.29, 4.29, 5.06, 5.72, 6.52, 6.9, 7.6, 7.63, 6.64, 5.94, 4.8, 4.4, 3.16, 4.29, 6.4, 8.38, 9.83, 9.83, 7.12, 7.68, 8.95, 10.34, 11.54, 13.27, 13.59, 12.56, 10.85, 9.24, 8.56, 7.1, 0.0, -3.82, -4.29, -4.98, -2.95, -0.0, 1.05, 0.96, -0.96, -1.63, -0.0, -0.0, 0.95, -0.0, -0.0, 9.48, 9.21, 9.49, 9.84, 10.13, 10.13, 10.47, 10.47, 10.47, 10.47, 11.08, 11.39, 11.99, 11.99, 11.67, 13.74, 11.96, 13.09, 13.3, 13.62, 14.22, 14.73, 13.53, 14.42, 13.01, 12.94, 8.06, 10.18, 9.49, 6.6, 6.1, 5.99, 5.24, 4.92, 4.44, 3.6, 2.53, 2.23, 2.99, 1.73, 1.72, 2.12, 2.82, 2.99, 4.96, 6.64, 6.63, 3.2, 1.32, 1.4, 2.82, 2.99, 4.14, 4.14, 4.14, 5.03, 5.37, 6.28, 7.44, 8.0, 8.06, 7.01, 5.94, 2.84, 2.2, 2.76, 4.43, 6.57, 8.45, 11.55, 14.31, 15.76, 17.47, 17.08, 15.99, 15.1, 14.84, 14.09, 13.18, 11.33, 8.29, 7.54, 5.81, 3.13, -0.0, -3.22, -4.65, -4.84, -3.22, -0.0, 1.03, -0.0, -0.95, -0.78, -0.0, -0.0, -0.0, -0.0, 9.21, 9.21, 9.49, 9.49, 10.13, 10.13, 10.13, 10.13, 10.47, 10.47, 11.08, 11.39, 11.7, 11.99, 11.99, 11.96, 11.63, 11.92, 12.84, 13.26, 14.85, 13.48, 13.34, 13.83, 12.23, 10.63, 9.03, 5.21, 4.0, 2.44, 2.21, 3.07, 3.39, 3.58, 3.53, 2.91, 2.91, 2.15, 1.88, 1.84, 1.8, 2.22, 2.44, 2.82, 3.45, 6.64, 4.14, 1.4, -0.0, -0.0, 1.4, 2.83, 2.83, 2.69, 3.4, 4.26, 4.96, 5.69, 7.2, 9.03, 7.94, 6.07, 3.79, 1.41, 1.84, 2.8, 4.74, 6.6, 8.3, 10.6, 12.98, 15.77, 18.06, 18.17, 17.81, 16.09, 14.66, 12.86, 10.73, 9.35, 8.45, 8.0, 7.37, 6.0, 3.22, -0.0, -1.13, -3.48, -4.84, -2.76, -0.96, -0.0, -1.03, -0.96, -0.0, -0.0, -0.0, -0.0, 8.83, 9.21, 9.49, 9.49, 10.13, 10.13, 10.13, 10.13, 10.47, 10.77, 11.08, 11.39, 11.7, 11.99, 11.99, 12.27, 12.22, 11.92, 10.99, 12.5, 12.87, 11.35, 11.72, 11.35, 11.07, 10.55, 8.51, 6.1, 3.07, 0.95, 0.95, 1.7, 2.68, 3.13, 3.13, 3.07, 2.91, 2.5, 2.15, 1.88, 1.6, 1.58, 1.19, 1.14, 2.12, 3.7, 2.99, -0.0, -0.0, -0.0, 1.26, 2.46, 2.46, 2.46, 2.46, 3.8, 5.36, 6.32, 7.81, 7.94, 5.51, 2.0, -0.0, 1.63, 2.8, 3.91, 4.74, 6.18, 8.21, 9.9, 11.92, 14.42, 16.05, 15.65, 13.31, 11.18, 8.55, 8.99, 8.49, 8.45, 8.29, 7.85, 7.53, 6.4, 6.21, 4.89, 3.49, 0.88, -2.76, -4.84, -3.22, -1.99, -1.19, -0.98, -0.0, -0.0, -0.0, -0.0, 8.83, 8.83, 9.21, 9.77, 10.13, 10.13, 10.13, 10.13, 10.47, 10.77, 10.77, 11.39, 11.39, 11.7, 11.7, 11.99, 12.56, 11.63, 11.63, 11.92, 11.8, 11.07, 10.51, 10.23, 10.59, 10.96, 10.91, 9.21, 6.36, 3.87, 2.63, 2.24, 2.68, 3.13, 3.13, 3.07, 2.91, 2.91, 2.5, 1.88, 1.13, 0.63, -0.0, -0.0, 0.56, 1.63, 1.32, -0.0, -0.0, -0.0, 1.26, 1.33, 1.26, 2.58, 2.58, 3.7, 4.2, 5.21, 6.98, 6.0, 2.21, -0.0, -0.0, 1.99, 2.99, 3.91, 4.74, 6.18, 7.42, 8.93, 10.24, 12.45, 9.65, 4.02, 0.0, 1.8, 2.68, 3.58, 4.92, 6.2, 7.12, 7.21, 7.2, 6.99, 6.18, 5.84, 4.58, 3.97, 0.82, -4.84, -4.6, -2.84, -1.98, -1.13, -0.0, -0.0, -0.0, -0.0, 8.83, 8.83, 8.83, 9.48, 9.77, 10.13, 10.13, 10.13, 10.47, 10.77, 10.77, 11.39, 11.39, 11.7, 11.7, 11.99, 11.99, 11.96, 11.96, 12.51, 12.65, 12.16, 10.96, 9.86, 9.59, 9.94, 10.68, 10.71, 9.7, 8.17, 6.47, 4.77, 3.54, 3.13, 3.13, 3.13, 3.07, 2.91, 2.8, 2.15, 1.16, -0.0, -0.61, -1.05, -0.57, -0.0, -0.0, -1.32, -0.0, -0.0, -0.0, 1.33, 1.33, 1.33, 2.58, 2.58, 2.47, 3.36, 4.2, 3.22, 1.83, 0.88, 0.96, 1.83, 2.76, 3.91, 4.74, 5.49, 7.6, 7.2, 7.9, 8.82, -2.8, -7.6, -6.94, -4.57, -3.6, -1.58, 1.79, 3.6, 5.2, 6.6, 6.6, 6.18, 5.69, 5.69, 4.87, 3.77, 2.99, 2.82, -3.58, -3.39, -1.9, -0.0, -0.0, -0.0, -0.0, -0.0, 8.83, 8.83, 8.83, 9.21, 9.21, 9.49, 10.13, 10.13, 10.77, 10.77, 10.77, 11.08, 11.39, 11.39, 11.7, 11.99, 11.99, 11.99, 12.22, 12.22, 13.01, 12.93, 12.16, 10.96, 9.5, 9.3, 9.86, 10.3, 10.4, 10.42, 8.79, 7.26, 5.57, 4.34, 3.53, 3.13, 3.13, 2.63, 2.63, 2.4, 1.61, -0.0, -0.57, -1.73, -2.36, -1.67, -1.32, -1.4, -1.2, -0.0, -0.0, -0.0, -0.0, 1.22, 2.39, 2.7, 0.89, 1.76, 2.7, 4.0, 2.82, 2.64, 2.8, 1.84, 2.64, 3.55, 4.58, 6.63, 6.82, 7.2, 7.6, 12.45, 9.79, 4.47, 3.58, -4.92, -4.92, -4.02, 4.02, 1.58, 4.0, 4.84, 4.81, 4.74, 5.37, 5.69, 5.24, 4.68, 4.26, 4.5, 1.19, -0.0, 1.79, -0.0, -0.0, -0.0, 0.77, 0.77, 8.83, 8.83, 8.83, 8.83, 9.21, 9.21, 10.13, 10.13, 10.77, 10.77, 10.77, 10.77, 11.39, 11.39, 11.7, 11.99, 11.99, 11.99, 12.29, 12.22, 12.51, 13.01, 12.82, 12.16, 10.58, 9.76, 8.94, 9.3, 10.3, 10.4, 9.71, 8.72, 7.09, 5.57, 4.34, 3.53, 3.13, 3.13, 3.13, 3.07, 2.4, 1.2, -0.51, -2.22, -2.84, -3.08, -2.4, -1.7, -1.14, -1.12, -0.56, -0.0, -0.0, -0.0, 1.22, 1.16, -0.0, -0.0, 1.39, 3.87, 4.4, 3.6, 3.6, 2.54, 2.54, 3.45, 5.1, 6.01, 7.15, 8.06, 9.79, 12.07, 15.6, 13.76, 12.85, 10.25, 6.66, 4.77, 2.84, -0.0, 1.13, 2.53, 3.22, 3.11, 4.87, 5.24, 5.53, 5.1, 5.36, 6.01, 7.06, 4.84, 4.15, 2.2, -0.0, -0.0, 1.58, 1.58, 8.83, 8.83, 8.83, 8.83, 9.21, 9.21, 9.21, 9.84, 10.13, 10.47, 10.77, 10.77, 11.08, 11.39, 11.39, 11.7, 11.99, 11.99, 11.99, 12.22, 12.22, 12.51, 12.45, 12.27, 11.62, 10.41, 9.58, 9.21, 9.58, 9.76, 9.63, 9.2, 8.0, 7.01, 5.31, 4.34, 3.53, 3.13, 3.13, 3.13, 3.07, 2.4, 0.54, -1.33, -2.86, -3.22, -2.84, -1.7, -1.14, -1.12, -1.1, -1.1, -0.0, -0.0, -0.0, -0.0, -0.0, -0.0, 1.22, 2.82, 5.7, 5.46, 3.45, 2.57, 3.32, 4.2, 5.21, 6.48, 7.81, 8.72, 9.68, 12.52, 12.86, 14.99, 14.84, 14.09, 12.05, 8.49, 3.2, -2.2, -1.99, -0.0, 0.88, 2.47, 4.16, 4.68, 5.1, 5.36, 6.18, 6.68, 7.76, 6.7, 6.4, 4.01, 1.63, 1.75, 2.31, 2.31, 8.83, 8.83, 8.83, 8.83, 8.83, 9.21, 9.48, 9.84, 10.13, 10.47, 10.47, 10.47, 10.77, 11.08, 11.39, 11.7, 11.99, 11.99, 11.99, 11.67, 12.22, 12.51, 12.45, 12.37, 11.72, 11.07, 10.41, 9.58, 9.21, 9.21, 9.48, 9.1, 8.82, 8.15, 6.95, 6.0, 4.8, 3.87, 3.53, 3.13, 3.13, 3.13, 3.53, -0.0, -2.51, -4.11, -3.22, -2.36, -1.67, -1.14, -1.12, -1.1, -1.1, -0.55, -0.0, -0.0, -0.0, -0.0, 0.89, 2.7, 4.05, 3.63, 4.05, 2.59, 4.8, 5.21, 6.04, 7.76, 8.43, 9.66, 10.14, 11.14, 12.49, 13.31, 13.92, 13.92, 12.49, 5.75, -4.02, -4.74, -3.72, -2.8, -0.0, 1.7, 2.47, 4.03, 4.74, 6.18, 7.06, 7.76, 7.68, 8.32, 7.15, 5.69, 4.03, 3.91, 3.8, 3.8, 8.83, 8.83, 8.83, 8.83, 8.83, 9.21, 9.48, 9.84, 9.84, 10.13, 10.47, 10.47, 10.77, 10.77, 11.08, 11.39, 11.7, 11.99, 11.67, 11.67, 11.96, 12.26, 11.92, 11.87, 11.8, 11.72, 11.07, 10.96, 10.04, 9.58, 8.84, 8.93, 8.55, 8.27, 7.61, 6.56, 5.6, 4.6, 3.87, 3.53, 3.13, 3.13, 3.98, 4.02, 1.7, -2.21, -4.11, -2.8, -1.67, -1.14, -1.12, -1.2, -1.1, -1.18, -1.09, -0.0, -0.0, -0.0, 0.85, 2.47, 2.57, 3.49, 3.65, 4.25, 5.29, 6.5, 7.68, 8.82, 9.36, 10.41, 11.14, 11.62, 12.07, 12.07, 12.96, 13.86, 12.04, 4.92, -5.36, -6.94, -5.95, -2.6, -1.16, -0.0, 1.7, 2.47, 3.79, 5.53, 6.73, 7.06, 7.76, 8.38, 8.42, 7.02, 6.32, 5.49, 5.49, 5.49, 8.43, 8.43, 8.83, 8.83, 8.83, 9.21, 9.48, 9.48, 9.84, 9.84, 10.47, 10.47, 10.77, 10.77, 11.08, 11.39, 11.39, 11.67, 11.67, 11.67, 11.96, 11.63, 11.92, 11.87, 11.52, 11.23, 11.16, 11.07, 10.79, 10.13, 9.21, 8.93, 8.55, 8.27, 7.9, 7.23, 6.41, 5.47, 4.6, 3.87, 3.53, 3.13, 3.53, 4.98, 4.6, 0.57, -2.86, -3.22, -1.67, -1.14, -1.14, -1.12, -1.2, -1.1, -1.18, -1.18, -0.0, -0.0, 0.85, 1.68, 1.68, 2.7, 3.36, 4.6, 6.15, 7.59, 8.73, 8.82, 9.24, 10.14, 10.7, 11.62, 11.62, 12.04, 12.86, 13.32, 12.96, 10.25, 4.47, -4.92, -6.94, -3.43, -2.23, -1.0, -0.0, 0.81, 2.6, 4.58, 6.01, 6.73, 7.76, 8.42, 8.93, 8.32, 7.68, 7.68, 6.64, 6.64, 8.43, 8.43, 8.83, 8.83, 8.83, 9.21, 9.48, 9.48, 9.84, 9.84, 10.13, 10.47, 10.77, 10.77, 10.77, 11.08, 11.08, 11.38, 11.67, 11.67, 11.96, 11.63, 11.36, 11.33, 11.28, 11.23, 10.88, 11.16, 11.07, 10.41, 9.76, 9.1, 8.55, 8.0, 8.27, 7.35, 7.07, 6.28, 5.08, 4.11, 3.39, 3.13, 3.13, 3.2, 4.0, 3.79, -1.05, -2.36, -1.7, -1.16, -0.53, -0.58, -1.12, -1.12, -1.1, -1.18, -1.18, -0.0, 0.85, 0.85, 1.68, 2.7, 4.4, 5.64, 6.83, 7.59, 7.9, 8.82, 8.21, 8.56, 9.06, 10.6, 12.09, 12.86, 12.96, 12.86, 12.49, 12.52, 12.52, 7.15, -4.02, -4.44, -3.7, -2.21, -1.0, -0.0, 0.88, 3.35, 5.06, 6.44, 7.07, 8.4, 9.08, 9.43, 8.67, 8.3, 7.68, 7.68, 8.43, 8.43, 8.43, 8.83, 8.83, 9.21, 9.48, 9.48, 9.84, 9.84, 9.84, 10.13, 10.77, 10.77, 10.77, 11.08, 11.08, 11.38, 11.38, 11.38, 11.96, 11.36, 11.03, 11.33, 11.28, 10.94, 10.88, 11.16, 11.07, 10.96, 10.41, 9.76, 9.48, 8.55, 8.0, 7.9, 7.61, 6.95, 5.89, 4.9, 4.11, 3.53, 3.13, 3.07, 3.07, 3.22, -0.0, -0.61, -1.07, -1.16, -0.59, -0.58, -0.58, -0.57, -1.2, -1.18, -0.55, -0.0, -0.0, 0.85, 1.75, 3.49, 5.06, 6.83, 6.95, 6.95, 6.95, 7.9, 8.59, 8.18, 7.15, 8.79, 11.64, 14.05, 14.55, 12.96, 11.59, 11.14, 12.07, 12.04, 6.26, -3.58, -4.02, -3.44, -2.91, -1.86, -0.42, 1.8, 5.21, 6.4, 7.28, 8.14, 8.63, 8.63, 8.8, 8.63, 8.24, 8.24, 8.43, 8.43, 8.43, 8.83, 8.83, 8.83, 9.48, 9.48, 9.48, 9.84, 10.13, 10.13, 10.13, 10.77, 10.77, 10.77, 11.08, 11.38, 11.38, 11.06, 11.36, 11.36, 11.03, 11.33, 10.99, 10.69, 10.65, 10.3, 11.6, 9.94, 10.51, 10.41, 9.76, 9.21, 8.55, 8.27, 7.9, 7.61, 6.95, 5.75, 4.8, 3.87, 3.53, 3.13, 2.49, 1.9, 1.16, -0.0, -0.55, -0.54, -0.59, -0.0, -0.0, -0.0, -0.0, -1.1, -0.55, -0.0, -0.0, 0.55, 1.75, 3.32, 5.76, 6.24, 6.95, 7.06, 6.32, 7.9, 8.24, 9.09, 7.76, 8.79, 11.33, 14.86, 16.48, 14.66, 11.18, 9.39, 9.8, 10.49, 10.52, 7.98, 1.2, -2.68, -3.13, -2.17, -1.2, 0.4, 4.98, 6.98, 7.56, 7.56, 7.56, 7.89, 8.4, 8.4, 8.14, 8.14, 8.43, 8.43, 8.43, 8.83, 8.83, 8.83, 9.21, 9.48, 9.48, 9.77, 10.13, 10.13, 10.13, 10.13, 10.47, 10.47, 10.47, 10.76, 11.06, 11.06, 11.36, 11.36, 11.03, 10.99, 10.72, 10.69, 10.36, 10.3, 10.01, 11.25, 9.37, 9.94, 9.86, 9.76, 9.1, 8.55, 8.27, 7.9, 7.61, 6.95, 5.6, 4.6, 3.87, 3.58, 3.13, 2.63, 1.86, 0.53, -0.0, -0.54, -0.0, -0.0, -0.0, -0.0, -0.0, -0.0, -0.56, -0.0, 0.59, 0.55, 1.73, 4.34, 5.98, 6.18, 6.18, 6.18, 6.32, 6.73, 8.55, 9.32, 8.42, 9.03, 10.18, 13.65, 17.59, 17.57, 13.49, 11.18, 11.03, 11.21, 11.72, 11.72, 10.52, 5.59, -1.34, -2.24, -1.34, 0.45, 5.73, 7.54, 7.6, 6.71, 6.26, 6.71, 7.11, 8.06, 7.47, 7.47, 8.43, 8.43, 8.43, 8.83, 8.83, 8.83, 9.21, 9.21, 9.49, 9.49, 9.84, 10.13, 10.13, 10.13, 10.47, 10.47, 10.76, 10.76, 11.06, 11.06, 11.36, 11.03, 11.03, 10.72, 10.72, 10.69, 10.36, 10.65, 10.65, 10.51, 9.59, 9.37, 9.37, 9.3, 9.21, 8.93, 8.55, 8.43, 8.27, 7.76, 6.8, 5.6, 4.6, 4.43, 4.02, 3.58, 3.07, 1.9, -0.0, -0.0, -0.0, -0.0, -0.0, 0.57, 0.61, 0.56, -0.0, -0.0, -0.0, 0.55, 2.49, 3.61, 5.1, 6.58, 5.36, 6.18, 6.18, 7.06, 7.9, 8.73, 8.79, 10.4, 11.45, 12.49, 15.56, 16.96, 15.77, 14.42, 13.64, 12.92, 12.33, 11.86, 10.96, 9.72, 4.47, -1.26, -1.49, 0.63, 5.81, 7.6, 7.15, 6.26, 5.36, 5.36, 5.81, 6.98, 6.79, 6.79, 8.43, 8.43, 8.43, 8.83, 8.83, 8.83, 8.83, 9.49, 9.49, 9.49, 9.49, 9.84, 10.13, 10.13, 9.84, 9.84, 10.76, 10.76, 10.76, 11.06, 11.36, 11.03, 11.03, 10.72, 10.4, 10.69, 10.36, 10.65, 10.65, 11.16, 10.51, 9.86, 9.3, 8.73, 8.94, 9.21, 9.1, 8.55, 8.82, 8.28, 7.48, 6.8, 5.81, 5.24, 4.44, 4.47, 4.02, 2.4, 0.61, -0.0, -0.0, -0.0, 0.58, 1.12, 1.1, 1.18, 1.09, 0.58, 0.58, 0.57, 1.14, 3.77, 5.1, 5.98, 5.98, 6.58, 6.18, 7.06, 7.76, 8.12, 8.32, 10.24, 12.45, 13.18, 14.09, 14.84, 15.56, 15.56, 14.55, 13.83, 12.07, 11.18, 10.26, 9.83, 7.15, 0.0, 0.0, 4.0, 6.2, 6.71, 6.26, 5.81, 5.36, 4.92, 5.36, 5.36, 6.51, 6.51, 8.18, 8.18, 8.18, 8.43, 8.83, 8.83, 9.12, 9.49, 9.49, 9.49, 9.49, 9.84, 9.84, 9.84, 9.84, 10.13, 10.45, 10.76, 10.76, 10.75, 11.03, 11.03, 10.72, 10.72, 10.4, 10.69, 10.36, 10.36, 10.65, 10.65, 10.8, 10.41, 9.86, 8.94, 8.73, 8.73, 9.21, 9.1, 8.82, 8.43, 8.28, 7.6, 7.01, 5.88, 5.57, 4.8, 4.34, 3.13, 1.61, -0.0, -0.0, 0.58, 1.14, 1.12, 1.76, 1.73, 1.71, 1.81, 1.69, 0.61, 1.12, 2.86, 5.1, 5.21, 6.04, 7.27, 6.32, 7.06, 7.06, 7.4, 9.09, 8.73, 13.02, 13.23, 13.65, 13.31, 13.65, 14.55, 14.73, 12.96, 11.6, 10.62, 9.58, 9.11, 8.8, 6.7, 5.6, 5.51, 6.26, 5.81, 6.17, 5.94, 5.73, 5.36, 4.92, 4.82, 5.51, 5.51, 8.18, 8.18, 8.18, 8.18, 8.57, 8.85, 8.85, 8.85, 9.22, 9.49, 9.49, 9.49, 9.79, 10.13, 10.13, 10.13, 10.13, 10.45, 10.45, 10.75, 10.75, 10.75, 10.72, 10.72, 10.4, 10.69, 10.69, 10.36, 10.65, 10.65, 10.59, 10.51, 10.41, 9.76, 9.21, 8.94, 9.01, 8.84, 8.93, 8.82, 8.68, 8.28, 7.81, 8.72, 5.81, 5.31, 4.4, 3.39, 2.6, 1.27, 0.59, 1.14, 1.67, 1.65, 1.76, 1.73, 2.23, 2.37, 1.78, 1.12, 1.12, 2.19, 5.1, 5.46, 6.04, 6.3, 5.82, 6.18, 6.18, 6.64, 7.76, 8.38, 11.99, 14.86, 13.72, 12.41, 12.49, 13.41, 13.86, 12.52, 11.18, 10.18, 9.58, 8.91, 8.63, 7.71, 6.51, 5.75, 5.81, 5.73, 5.94, 6.45, 6.45, 5.73, 5.26, 4.57, 4.22, 4.6, 8.18, 8.18, 8.18, 8.18, 8.85, 8.85, 8.85, 8.85, 8.85, 9.22, 9.22, 9.5, 9.5, 9.84, 10.13, 10.13, 10.13, 10.13, 10.45, 10.75, 10.75, 10.43, 10.72, 10.4, 10.4, 10.4, 10.69, 10.36, 10.65, 10.65, 10.59, 10.23, 10.51, 10.41, 10.13, 9.58, 9.21, 8.65, 8.93, 8.55, 8.96, 8.68, 8.51, 9.66, 6.79, 6.3, 5.08, 3.88, 3.13, 2.23, 1.7, 1.84, 2.16, 2.32, 2.29, 2.26, 2.4, 2.23, 2.33, 1.67, 1.12, 1.67, 4.8, 5.21, 5.36, 5.46, 4.88, 5.76, 6.18, 6.64, 6.64, 9.09, 11.33, 13.35, 15.24, 13.23, 11.95, 12.52, 12.07, 11.62, 10.7, 9.36, 8.36, 6.98, 6.21, 6.26, 5.81, 5.81, 6.2, 6.2, 6.64, 7.1, 6.94, 5.94, 5.51, 5.09, 4.22, 4.22, 8.18, 8.18, 8.18, 8.18, 8.46, 8.85, 8.85, 8.85, 8.85, 9.5, 9.5, 9.5, 9.5, 9.5, 9.84, 9.84, 10.13, 10.13, 10.13, 10.43, 10.43, 10.72, 10.72, 10.4, 10.4, 10.4, 10.36, 10.36, 10.65, 10.65, 10.59, 10.59, 10.51, 10.51, 10.41, 10.13, 9.38, 9.21, 8.93, 8.93, 8.96, 8.96, 8.68, 8.3, 9.97, 6.79, 5.6, 4.8, 4.02, 3.48, 3.08, 2.82, 2.82, 2.8, 3.0, 2.96, 2.75, 2.89, 2.33, 1.67, 1.67, 1.67, 2.92, 4.88, 4.88, 4.88, 5.21, 6.18, 6.18, 6.64, 7.06, 8.18, 10.4, 12.39, 14.67, 13.49, 12.45, 11.05, 9.83, 8.05, 7.15, 6.98, 6.28, 5.75, 5.82, 6.0, 6.4, 7.12, 7.37, 7.37, 7.37, 7.55, 7.54, 6.64, 6.17, 5.51, 4.57, 4.22, 7.93, 7.93, 8.2, 8.2, 8.2, 8.58, 8.58, 8.58, 8.86, 8.86, 9.21, 9.5, 9.5, 9.5, 9.84, 9.84, 9.84, 9.84, 10.13, 10.43, 10.43, 10.72, 10.72, 10.4, 10.4, 10.69, 10.36, 10.36, 10.65, 10.65, 10.3, 10.59, 10.59, 10.51, 10.79, 10.68, 10.3, 9.76, 9.21, 9.1, 9.1, 8.82, 8.68, 8.51, 8.48, 9.97, 6.61, 5.78, 5.7, 5.21, 4.71, 4.11, 3.49, 3.47, 3.45, 3.42, 2.75, 2.89, 2.21, 1.78, 1.67, 1.78, 2.6, 3.87, 3.87, 4.88, 5.36, 6.3, 6.32, 7.06, 7.76, 8.18, 9.32, 10.4, 11.88, 13.76, 13.26, 12.23, 10.0, 7.82, 7.07, 7.69, 7.69, 7.69, 8.3, 8.63, 8.95, 8.82, 8.56, 8.77, 8.33, 8.0, 7.55, 7.1, 6.2, 5.73, 4.98, 4.98, 8.2, 8.2, 8.2, 8.2, 8.2, 8.2, 8.58, 8.86, 8.86, 8.86, 9.21, 9.21, 9.21, 9.5, 9.5, 9.84, 9.84, 10.13, 10.13, 10.13, 10.43, 10.43, 10.72, 10.4, 10.4, 10.36, 10.09, 10.36, 10.65, 10.65, 10.65, 10.59, 10.59, 10.51, 10.51, 10.41, 10.68, 10.3, 9.76, 9.48, 9.1, 8.82, 8.68, 8.28, 8.72, 9.11, 8.47, 8.05, 7.4, 6.6, 6.0, 4.84, 4.11, 4.12, 4.12, 4.1, 3.4, 3.37, 2.89, 2.33, 1.78, 1.69, 2.23, 3.87, 3.87, 4.88, 6.3, 6.64, 6.32, 7.41, 8.18, 8.21, 9.86, 8.8, 10.8, 12.39, 13.49, 15.47, 13.87, 12.27, 10.73, 10.73, 11.04, 10.48, 10.0, 10.32, 9.75, 9.54, 9.68, 9.24, 8.9, 8.45, 8.0, 7.1, 5.73, 4.98, 4.98, 4.98, 7.8, 7.8, 8.2, 8.2, 8.2, 8.2, 8.86, 8.86, 8.86, 8.86, 9.21, 9.21, 9.21, 9.21, 9.21, 9.5, 9.82, 9.82, 9.82, 10.13, 10.43, 10.43, 10.72, 10.4, 10.69, 10.36, 10.09, 10.36, 10.65, 10.65, 10.65, 10.59, 10.59, 10.51, 10.51, 10.79, 10.96, 10.83, 10.3, 10.02, 9.1, 8.82, 8.68, 8.51, 8.3, 8.48, 8.87, 8.49, 8.47, 7.51, 6.47, 5.81, 4.84, 4.71, 4.12, 4.1, 3.83, 3.6, 2.89, 2.21, 2.21, 2.21, 1.71, 2.49, 3.87, 6.3, 6.3, 6.95, 6.73, 7.81, 8.21, 7.82, 8.4, 9.36, 9.36, 10.85, 12.7, 14.79, 15.82, 14.85, 14.22, 12.79, 12.54, 11.72, 11.03, 10.49, 10.16, 9.8, 9.39, 8.94, 8.49, 8.05, 7.6, 6.2, 5.7, 5.26, 5.26, 5.26, 7.55, 7.55, 7.95, 7.95, 7.95, 8.49, 8.22, 8.59, 8.86, 8.86, 8.86, 9.5, 9.5, 9.5, 9.5, 9.5, 9.5, 9.5, 9.82, 10.13, 10.13, 10.72, 10.4, 10.4, 10.36, 10.36, 10.36, 10.36, 10.65, 10.65, 10.65, 10.59, 10.59, 10.87, 10.51, 10.7, 10.7, 10.96, 10.68, 10.3, 9.63, 8.96, 8.68, 8.51, 8.3, 8.48, 8.64, 8.42, 8.05, 7.6, 7.06, 6.04, 5.6, 4.94, 4.74, 4.1, 4.08, 3.83, 3.37, 2.37, 2.21, 2.37, 1.71, 2.23, 4.6, 6.3, 7.56, 6.32, 7.06, 7.51, 8.18, 7.15, 7.81, 8.8, 9.36, 10.32, 11.5, 13.64, 14.71, 14.79, 14.46, 14.14, 13.33, 12.44, 11.86, 10.7, 10.28, 9.83, 9.39, 8.49, 8.94, 7.15, 6.71, 5.81, 5.36, 5.36, 5.36, 5.36, 7.55, 7.55, 7.55, 7.95, 8.22, 8.22, 8.22, 8.59, 8.59, 8.87, 8.87, 9.21, 9.21, 9.5, 9.5, 9.5, 9.5, 9.5, 9.82, 9.82, 9.82, 10.12, 10.4, 10.69, 10.36, 10.36, 10.36, 10.65, 10.65, 10.65, 10.3, 10.59, 10.59, 10.59, 10.8, 11.07, 11.07, 10.7, 10.41, 10.3, 10.02, 9.35, 9.2, 8.51, 8.72, 8.48, 8.64, 8.33, 8.03, 7.6, 7.13, 6.47, 5.81, 5.37, 5.29, 4.47, 4.1, 4.08, 3.6, 2.89, 2.37, 2.23, 2.23, 2.37, 3.37, 6.3, 6.64, 5.53, 6.32, 7.06, 7.15, 7.51, 7.81, 8.8, 9.36, 9.9, 11.37, 12.8, 13.39, 13.19, 14.39, 15.24, 14.42, 12.62, 11.98, 11.18, 10.7, 9.72, 9.24, 9.29, 7.94, 6.64, 6.26, 5.36, 5.36, 4.92, 4.92, 4.92, 7.83, 7.83, 7.83, 8.22, 8.22, 8.22, 8.22, 8.59, 8.87, 8.87, 8.87, 8.87, 9.21, 9.21, 9.21, 9.21, 9.21, 9.5, 9.82, 9.82, 10.12, 10.12, 10.12, 10.09, 10.36, 10.36, 10.36, 10.65, 10.65, 10.3, 10.3, 10.59, 10.94, 11.16, 11.16, 11.16, 10.8, 10.51, 10.41, 10.13, 10.02, 9.48, 9.2, 9.01, 8.72, 8.48, 8.64, 8.33, 8.41, 8.05, 7.6, 7.06, 6.3, 6.0, 5.01, 4.75, 4.47, 4.08, 3.4, 2.89, 2.23, 2.23, 2.23, 2.37, 2.89, 5.46, 5.21, 5.21, 6.01, 6.32, 6.73, 7.81, 8.4, 8.8, 9.66, 10.18, 11.11, 12.3, 12.45, 12.56, 13.75, 15.24, 14.58, 12.92, 11.98, 11.62, 11.08, 10.25, 9.66, 7.53, 6.94, 6.64, 5.73, 4.92, 4.92, 4.92, 4.92, 4.92, 7.57, 7.57, 7.83, 7.57, 8.22, 8.22, 8.22, 8.51, 8.87, 8.87, 8.87, 8.87, 9.21, 9.21, 9.21, 9.21, 9.21, 9.5, 10.12, 10.12, 10.12, 9.8, 9.8, 10.09, 10.36, 10.36, 10.36, 10.65, 10.65, 10.3, 10.65, 10.65, 10.88, 11.23, 11.23, 11.16, 10.8, 10.51, 10.41, 9.76, 9.63, 9.35, 9.2, 9.42, 9.21, 8.79, 8.48, 8.77, 8.42, 8.03, 7.6, 7.13, 6.51, 6.3, 5.29, 5.01, 4.75, 4.47, 4.08, 2.92, 2.92, 2.4, 1.73, 1.71, 2.37, 5.1, 5.1, 4.88, 6.3, 6.73, 7.81, 8.21, 8.4, 9.13, 9.66, 10.18, 10.32, 10.96, 11.6, 11.64, 13.11, 14.3, 14.71, 12.92, 11.98, 10.28, 9.26, 8.4, 7.07, 6.44, 6.57, 5.51, 5.26, 4.92, 4.92, 4.92, 4.92, 4.92, 7.57, 7.57, 7.57, 7.57, 7.96, 7.96, 8.23, 8.23, 8.59, 8.59, 8.87, 8.87, 8.87, 9.5, 9.5, 9.5, 9.5, 9.5, 9.5, 9.8, 9.8, 9.8, 9.8, 10.09, 10.36, 10.36, 10.36, 10.65, 10.65, 10.65, 10.65, 11.23, 11.23, 11.23, 11.23, 10.88, 10.8, 10.51, 9.86, 9.76, 9.48, 9.35, 9.6, 9.42, 9.01, 9.21, 8.96, 8.64, 8.33, 8.03, 7.6, 7.13, 7.06, 6.3, 5.49, 5.01, 5.06, 4.47, 4.08, 2.92, 2.75, 2.26, 1.73, 1.73, 1.73, 3.32, 4.4, 5.06, 5.76, 6.18, 7.06, 7.15, 8.72, 8.72, 9.13, 9.36, 9.6, 10.04, 10.66, 11.26, 12.15, 13.11, 13.59, 13.64, 10.75, 6.21, 3.58, 4.57, 4.11, 4.11, 3.48, 4.4, 4.47, 4.47, 4.92, 5.36, 5.36, 5.36, 7.57, 7.57, 7.57, 7.57, 7.96, 8.23, 8.23, 8.23, 8.59, 8.59, 8.59, 8.59, 8.87, 9.19, 9.19, 9.5, 9.5, 9.5, 9.5, 9.5, 9.8, 9.8, 9.8, 10.09, 10.36, 10.36, 10.36, 10.65, 10.65, 10.99, 11.23, 10.94, 10.94, 11.23, 11.23, 10.88, 10.59, 9.94, 9.86, 9.58, 9.48, 9.35, 9.35, 9.2, 9.42, 9.21, 8.96, 8.64, 8.33, 7.97, 8.05, 7.6, 7.13, 6.1, 5.75, 5.49, 5.35, 4.75, 3.84, 3.42, 2.96, 2.77, 2.29, 1.76, 1.2, 2.83, 4.2, 4.4, 5.29, 5.64, 6.95, 7.06, 7.58, 8.17, 8.4, 8.82, 9.05, 9.43, 10.04, 11.02, 11.92, 11.92, 12.45, 13.49, 10.68, -1.8, -0.99, 1.79, 2.21, 2.23, 1.27, 2.21, 2.97, 4.47, 5.36, 5.81, 5.81, 5.81, 7.57, 7.57, 7.57, 7.85, 7.85, 8.23, 8.23, 8.23, 8.23, 8.59, 8.87, 8.87, 8.87, 8.87, 9.19, 9.19, 9.5, 9.5, 9.5, 9.5, 9.8, 9.8, 10.09, 10.09, 10.36, 10.36, 10.69, 10.69, 10.94, 10.94, 11.28, 11.28, 11.28, 11.23, 10.88, 10.59, 10.51, 9.86, 9.5, 9.21, 9.48, 9.35, 9.35, 9.6, 9.42, 9.01, 9.21, 9.07, 8.77, 8.42, 8.03, 7.6, 7.58, 6.79, 6.1, 5.75, 5.29, 4.75, 4.1, 3.42, 2.77, 3.0, 2.14, 1.65, 1.12, 1.8, 2.69, 2.57, 4.4, 5.9, 6.83, 7.27, 7.06, 6.73, 7.81, 7.76, 8.42, 9.05, 10.0, 10.85, 11.37, 11.37, 11.87, 13.44, 3.58, -2.53, -2.21, -0.0, 2.24, 2.4, 1.4, 1.4, 2.53, 4.24, 4.77, 5.26, 5.26, 5.26, 7.59, 7.59, 7.59, 7.59, 7.59, 7.59, 7.96, 7.96, 8.23, 8.87, 8.87, 8.87, 8.87, 8.87, 9.19, 9.19, 9.19, 9.19, 9.19, 9.5, 9.8, 10.09, 10.09, 10.09, 10.36, 10.69, 10.69, 10.94, 11.28, 11.28, 11.28, 11.28, 10.94, 10.88, 10.3, 10.23, 9.94, 9.5, 9.58, 9.21, 9.48, 9.63, 9.48, 9.48, 9.2, 9.01, 9.21, 8.91, 8.64, 8.42, 8.03, 8.05, 7.6, 6.94, 6.3, 5.75, 5.49, 4.74, 3.85, 3.45, 3.45, 2.8, 2.32, 1.67, 1.14, 1.14, 1.84, 1.95, 4.12, 5.21, 6.04, 7.27, 7.68, 6.95, 7.06, 7.4, 8.12, 9.42, 9.77, 10.18, 10.68, 10.85, 12.09, 10.89, 4.0, -2.97, -3.13, -1.79, 1.79, 2.68, 2.4, 2.4, 3.2, 3.35, 4.0, 4.77, 4.77, 4.77, 7.59, 7.59, 7.59, 7.59, 7.59, 7.59, 7.59, 7.96, 8.24, 8.24, 8.58, 8.58, 8.87, 8.87, 9.19, 9.19, 9.19, 9.19, 9.48, 9.48, 9.77, 10.09, 10.09, 10.09, 10.69, 10.69, 10.99, 10.99, 10.99, 11.28, 11.28, 10.94, 10.88, 10.3, 10.01, 9.94, 9.86, 9.3, 9.58, 9.38, 9.63, 9.63, 9.88, 9.48, 9.2, 9.01, 9.21, 8.91, 8.64, 8.33, 8.42, 8.03, 7.13, 6.94, 6.3, 6.1, 5.75, 5.01, 4.12, 3.47, 3.47, 3.04, 2.36, 1.84, 1.7, 1.16, 1.08, 1.76, 3.77, 5.1, 6.32, 7.06, 7.35, 7.68, 7.76, 7.4, 8.18, 9.03, 9.36, 9.66, 9.75, 10.68, 13.01, 10.18, 2.4, -4.02, -3.58, -2.24, 0.0, 1.9, 2.68, 2.68, 3.58, 4.02, 4.02, 3.58, 3.58, 3.58, 7.59, 7.59, 7.59, 7.59, 7.59, 7.59, 7.59, 8.24, 8.24, 8.24, 8.24, 8.58, 8.58, 8.87, 9.19, 9.48, 9.48, 9.48, 9.48, 9.48, 9.77, 9.77, 10.09, 10.09, 10.4, 10.72, 10.99, 10.99, 10.99, 11.28, 10.94, 11.23, 10.65, 10.23, 9.94, 9.59, 9.3, 9.3, 9.58, 9.76, 9.76, 9.63, 9.63, 9.48, 9.2, 9.42, 9.21, 8.91, 8.64, 8.77, 8.42, 8.03, 7.58, 7.06, 6.47, 6.3, 6.0, 4.94, 4.12, 3.47, 3.22, 2.82, 2.82, 2.18, 1.7, 1.73, 1.76, 1.58, 3.55, 5.24, 6.73, 7.06, 7.06, 7.76, 7.76, 7.81, 7.81, 8.8, 9.66, 9.66, 9.66, 9.9, 12.3, 10.32, 3.13, -4.92, -4.02, -3.13, -2.24, 0.0, 2.24, 2.68, 4.02, 4.02, 4.02, 3.58, 3.58, 3.58, 7.33, 7.33, 7.33, 7.33, 7.33, 7.6, 7.6, 7.6, 7.96, 7.96, 8.24, 8.58, 8.58, 8.87, 9.48, 9.48, 9.48, 9.48, 9.48, 9.48, 9.77, 10.09, 10.09, 10.4, 10.4, 10.72, 10.99, 10.99, 10.99, 11.28, 11.23, 10.65, 10.59, 10.3, 9.94, 9.66, 9.3, 9.3, 9.58, 9.76, 9.76, 10.02, 9.63, 9.48, 9.6, 9.2, 9.01, 8.72, 8.48, 8.64, 8.33, 8.03, 7.6, 7.13, 6.51, 6.3, 6.0, 5.21, 4.12, 3.49, 3.49, 3.49, 2.84, 2.4, 2.2, 2.2, 2.44, 1.57, 2.4, 5.69, 6.01, 6.32, 7.06, 7.06, 8.18, 8.21, 8.17, 8.72, 9.24, 9.24, 9.24, 9.9, 11.37, 11.61, 5.81, -4.34, -4.47, -3.13, -1.58, 0.0, 0.0, 2.68, 3.13, 4.47, 4.47, 4.02, 4.02, 4.02, 7.33, 7.33, 7.6, 7.6, 7.6, 7.6, 7.6, 7.6, 7.96, 7.96, 7.96, 8.87, 8.87, 8.87, 9.17, 9.48, 9.48, 9.48, 9.48, 9.48, 9.77, 10.09, 10.09, 10.4, 10.4, 10.72, 10.99, 10.99, 11.28, 10.94, 10.65, 10.59, 10.23, 9.94, 9.59, 9.66, 9.3, 9.3, 9.3, 9.76, 9.76, 10.02, 9.63, 9.48, 9.35, 9.2, 9.01, 8.72, 8.91, 8.64, 8.33, 8.03, 7.6, 7.13, 6.61, 6.47, 5.88, 5.21, 4.11, 3.83, 3.78, 3.49, 3.12, 2.61, 2.44, 2.44, 2.44, 2.44, 2.86, 4.42, 4.68, 5.1, 6.32, 7.06, 7.41, 7.81, 7.82, 8.56, 8.56, 8.99, 9.24, 9.75, 11.33, 12.71, 9.8, 0.0, -4.57, -3.39, -1.9, -1.2, 0.0, 1.2, 3.39, 4.34, 4.47, 4.02, 4.02, 4.02, 7.22, 7.22, 7.6, 7.33, 7.33, 7.33, 7.6, 7.89, 8.24, 8.24, 8.24, 8.24, 8.87, 8.87, 9.17, 9.17, 9.17, 9.48, 9.48, 9.77, 9.77, 10.09, 10.09, 10.4, 10.72, 10.72, 10.72, 10.99, 10.94, 10.69, 10.65, 10.59, 10.01, 9.94, 9.59, 9.86, 9.3, 9.3, 9.3, 9.76, 9.76, 10.02, 9.63, 9.88, 9.35, 9.2, 9.01, 8.72, 8.91, 8.64, 8.33, 8.03, 7.6, 7.15, 6.68, 6.61, 6.04, 5.08, 4.11, 4.11, 3.79, 3.79, 3.49, 2.86, 2.86, 2.86, 2.86, 2.6, 2.44, 2.82, 3.77, 5.24, 6.32, 6.73, 6.73, 7.81, 7.82, 8.17, 8.06, 8.72, 9.24, 9.97, 11.05, 12.49, 12.52, 8.0, 0.0, -3.6, -2.98, -0.99, 0.0, 1.13, 2.84, 3.72, 3.72, 4.24, 4.24, 4.24, 6.96, 6.96, 6.96, 7.33, 7.61, 7.61, 7.61, 7.61, 7.95, 8.24, 8.24, 8.24, 8.56, 8.87, 9.17, 9.17, 9.17, 9.17, 9.48, 9.77, 10.09, 10.09, 10.42, 10.4, 10.4, 10.4, 10.4, 10.69, 10.69, 10.36, 10.65, 10.59, 10.01, 9.94, 9.59, 9.86, 9.3, 9.3, 9.5, 9.76, 9.76, 9.76, 9.63, 9.48, 9.35, 9.2, 9.01, 8.72, 8.72, 8.48, 8.21, 7.97, 7.58, 7.15, 6.68, 6.68, 6.16, 5.31, 4.65, 4.07, 4.07, 4.07, 4.07, 3.48, 3.48, 2.86, 2.86, 2.86, 2.22, 1.76, 2.86, 5.37, 6.11, 6.45, 6.79, 7.82, 8.21, 8.72, 8.56, 8.99, 9.49, 10.14, 11.15, 12.94, 13.41, 11.62, 7.54, 1.9, -2.21, -1.13, 0.0, 0.0, 2.23, 3.72, 3.72, 3.72, 3.72, 3.72, 6.96, 6.96, 7.24, 7.61, 7.61, 7.61, 7.61, 7.61, 7.95, 7.95, 7.95, 8.24, 8.56, 8.56, 8.87, 9.17, 9.17, 9.17, 9.77, 9.77, 10.09, 10.09, 10.69, 10.4, 10.4, 10.69, 10.69, 10.69, 10.36, 10.65, 10.3, 10.01, 10.01, 9.94, 9.59, 9.86, 9.5, 9.5, 9.5, 9.76, 9.76, 9.76, 9.63, 9.1, 9.35, 9.2, 9.01, 9.01, 8.72, 8.48, 8.64, 7.97, 7.58, 7.15, 7.15, 6.68, 6.6, 5.4, 4.55, 4.29, 4.29, 4.65, 4.29, 4.07, 4.0, 3.78, 3.78, 3.48, 2.86, 2.48, 2.86, 5.06, 5.37, 7.44, 7.6, 8.17, 8.3, 8.99, 8.56, 9.21, 9.68, 10.14, 11.14, 12.49, 13.39, 12.94, 11.18, 8.49, 4.38, 1.4, 0.0, 0.0, 0.0, 1.13, 1.98, 2.84, 2.84, 2.84, 6.97, 6.97, 6.97, 7.33, 7.61, 7.61, 7.61, 7.61, 7.95, 8.24, 8.24, 8.24, 8.85, 8.85, 8.85, 9.46, 9.46, 9.48, 9.77, 9.77, 10.09, 10.36, 10.69, 10.69, 10.69, 10.69, 10.69, 10.36, 10.36, 10.65, 10.06, 10.01, 10.01, 9.94, 9.59, 9.86, 9.86, 9.86, 9.5, 9.76, 9.76, 9.21, 9.48, 9.1, 9.35, 9.2, 9.01, 9.01, 8.72, 8.91, 8.17, 7.87, 7.51, 7.15, 7.15, 7.15, 6.68, 5.99, 5.31, 4.93, 5.08, 5.08, 5.08, 4.93, 4.55, 4.55, 4.0, 4.0, 3.48, 3.15, 2.86, 3.2, 4.07, 8.48, 7.63, 8.56, 8.56, 8.99, 9.21, 9.24, 9.79, 10.25, 11.14, 12.04, 13.38, 13.31, 12.04, 10.7, 9.39, 7.6, 4.77, 2.84, 0.87, 0.98, 0.98, 2.2, 2.2, 2.2, 6.97, 6.97, 6.97, 7.33, 7.61, 7.61, 7.61, 7.61, 7.95, 8.24, 8.24, 8.24, 8.85, 8.85, 8.85, 9.46, 9.46, 9.48, 9.77, 9.77, 10.09, 10.36, 10.69, 10.69, 10.69, 10.69, 10.69, 10.36, 10.36, 10.65, 10.06, 10.01, 10.01, 9.94, 9.59, 9.86, 9.86, 9.86, 9.5, 9.76, 9.76, 9.21, 9.48, 9.1, 9.35, 9.2, 9.01, 9.01, 8.72, 8.91, 8.17, 7.87, 7.51, 7.15, 7.15, 7.15, 6.68, 5.99, 5.31, 4.93, 5.08, 5.08, 5.08, 4.93, 4.55, 4.55, 4.0, 4.0, 3.48, 3.15, 2.86, 3.2, 4.07, 8.48, 7.63, 8.56, 8.99, 8.99, 9.21, 9.24, 9.79, 10.25, 11.14, 12.04, 12.85, 13.31, 12.27, 11.51, 10.6, 10.25, 9.35, 8.05, 6.17, 4.98, 3.93, 3.48, 3.48, 3.48]}, {"header": {"dx": 0.06612293990616946, "dy": 0.0552356325346848, "nx": 98, "ny": 59, "la1": 35.046912555036876, "la2": 31.78801023549047, "lo1": -121.43107172385933, "lo2": -114.95102361305473, "refTime": "2026041621", "parameterCategory": 1, "parameterNumber": 3}, "data": [-10.13, -10.13, -9.82, -9.5, -9.5, -9.21, -8.86, -8.58, -8.2, -8.18, -7.53, -6.9, -5.55, -4.21, -2.51, -1.63, -0.89, 0.0, 0.0, -3.2, -5.51, -5.81, -4.92, -4.92, -4.77, -4.4, -4.29, -4.29, -4.6, -4.6, -4.29, -4.4, -4.34, -4.02, -4.34, -4.4, -4.54, -4.89, -3.91, -3.72, -3.4, -3.63, -3.92, -5.08, -5.04, -4.81, -4.71, -3.28, -2.39, -1.61, -0.81, 0.0, 0.0, 0.0, 0.79, 0.82, 1.59, 1.59, 1.64, 1.59, 2.5, 2.43, 3.28, 3.28, 4.16, 3.95, 4.07, 4.81, 5.06, 4.91, 4.13, 4.1, 4.1, 4.1, 4.21, 4.06, 3.32, 2.25, 1.63, 1.69, 0.85, 0.0, 0.0, -1.98, -3.35, -2.4, -1.4, 0.0, 0.0, 0.95, 3.0, 6.99, 8.77, 9.21, 8.99, 8.21, 7.2, 8.06, -10.75, -10.13, -10.13, -9.82, -9.5, -9.21, -9.5, -8.85, -8.85, -8.46, -7.95, -8.18, -6.65, -5.4, -4.65, -2.42, -1.76, -1.33, -1.39, -1.84, -4.74, -6.26, -6.26, -6.26, -4.82, -4.4, -4.4, -4.98, -4.98, -4.98, -4.98, -4.98, -4.82, -4.92, -5.73, -5.6, -6.57, -6.21, -5.95, -5.37, -4.94, -5.32, -6.4, -6.79, -6.6, -5.79, -4.13, -2.45, -1.64, -0.83, -0.8, 0.0, 0.0, 0.0, 0.0, 0.82, 0.8, 0.8, 1.64, 1.59, 2.5, 2.43, 3.2, 3.38, 3.2, 4.07, 4.07, 4.07, 4.07, 3.95, 4.04, 3.25, 3.34, 3.23, 3.32, 2.53, 2.44, 2.25, 1.63, 1.69, 0.85, 0.0, 0.0, -1.98, -3.35, -2.4, -1.4, 0.0, 0.0, 0.95, 3.0, 6.99, 8.77, 9.21, 8.99, 8.21, 7.2, 8.06, -10.75, -10.43, -10.13, -10.13, -10.13, -9.5, -9.5, -9.22, -8.85, -8.85, -8.2, -7.59, -6.65, -5.93, -4.4, -3.53, -3.39, -2.49, -2.83, -2.7, -3.72, -5.58, -6.26, -6.71, -6.51, -4.98, -4.98, -4.98, -4.98, -4.98, -5.7, -5.29, -5.81, -6.71, -6.02, -7.47, -7.12, -7.2, -7.76, -7.2, -7.02, -6.71, -7.38, -7.49, -6.52, -4.98, -3.23, -1.64, -0.83, 0.0, 0.0, 0.0, 0.0, 0.0, 0.0, 0.0, 0.8, 0.82, 1.64, 1.64, 2.37, 2.43, 2.43, 3.2, 3.3, 3.3, 3.3, 3.13, 3.3, 3.2, 2.49, 2.47, 2.45, 1.71, 1.64, 1.64, 1.7, 1.7, 1.5, 0.89, 0.89, 0.0, 0.0, 0.0, -2.97, -3.58, -3.6, -2.16, -0.89, 1.98, 5.58, 8.29, 8.77, 8.77, 8.17, 6.79, 6.55, 7.81, -10.75, -10.75, -10.43, -10.13, -10.13, -10.13, -9.5, -9.22, -9.49, -8.85, -8.58, -8.22, -7.74, -5.99, -4.87, -4.47, -4.3, -3.82, -3.39, -3.36, -3.63, -4.83, -5.94, -5.36, -5.26, -6.94, -5.51, -5.7, -5.26, -5.36, -5.36, -5.81, -5.81, -6.94, -7.06, -7.89, -8.48, -9.04, -9.24, -9.42, -9.0, -9.17, -8.18, -6.43, -4.93, -4.06, -2.44, -1.64, -0.83, 0.0, 0.0, 0.0, 0.0, 0.0, 0.0, 0.0, 0.0, 0.0, 0.82, 0.82, 1.59, 1.68, 2.43, 2.43, 2.43, 2.5, 2.37, 2.98, 2.84, 2.89, 2.49, 1.61, 1.64, 1.52, 0.76, 0.0, 0.0, 0.0, 0.85, 0.85, 0.84, 1.96, 2.99, 2.48, 0.0, -2.84, -3.48, -1.99, 1.05, 5.58, 7.85, 8.29, 8.29, 8.06, 7.2, 6.45, 6.18, 7.54, -10.75, -10.75, -10.43, -10.43, -10.13, -10.13, -9.84, -10.13, -9.49, -9.21, -8.85, -8.59, -8.31, -6.53, -5.2, -5.2, -4.68, -5.0, -4.8, -4.25, -5.32, -5.59, -6.08, -7.15, -5.81, -7.15, -7.15, -7.15, -7.15, -5.81, -5.73, -5.94, -6.0, -5.58, -6.44, -7.47, -7.47, -8.4, -9.9, -10.96, -10.04, -8.53, -6.84, -5.86, -4.17, -3.42, -2.44, -1.64, -1.6, -1.65, -1.61, -1.61, -0.84, -0.81, -0.84, -0.82, -0.82, 0.0, 0.0, 0.0, 0.0, 0.79, 1.67, 1.67, 2.43, 1.63, 2.43, 3.2, 3.95, 4.16, 4.13, 3.34, 2.95, 1.69, 0.0, 0.0, 0.0, 0.0, 0.0, 0.0, 1.6, 4.98, 6.17, 6.17, 4.98, 3.48, 2.4, 3.49, 6.0, 7.81, 7.85, 7.85, 7.85, 7.2, 6.11, 5.69, 6.21, 7.54, -11.03, -10.75, -10.75, -10.43, -10.43, -10.13, -10.13, -10.13, -9.84, -9.48, -9.49, -8.86, -8.84, -7.19, -5.4, -5.2, -5.0, -5.57, -5.76, -6.0, -6.41, -5.76, -7.67, -7.89, -7.6, -7.15, -6.71, -6.71, -6.71, -7.15, -6.64, -6.16, -5.49, -4.26, -4.03, -4.11, -4.6, -4.4, -7.1, -9.68, -8.8, -7.9, -5.21, -4.25, -3.25, -2.6, -2.51, -2.61, -2.53, -2.37, -2.45, -2.54, -2.39, -1.61, -1.57, -1.62, -0.84, -0.79, 0.0, 0.0, 0.0, 0.81, 1.66, 1.62, 2.49, 2.49, 3.25, 4.1, 4.87, 5.73, 4.87, 5.11, 4.17, 2.6, 0.85, 0.0, 0.0, 0.0, 0.96, 1.05, 4.77, 6.71, 7.15, 7.1, 7.1, 7.37, 6.99, 7.12, 7.81, 7.85, 8.0, 7.85, 7.53, 6.55, 5.24, 4.87, 6.57, 7.6, -11.03, -11.03, -10.75, -10.75, -10.43, -10.43, -10.45, -10.13, -10.13, -9.84, -9.49, -9.21, -8.84, -7.12, -5.8, -5.2, -4.87, -5.4, -5.0, -6.2, -6.09, -5.86, -5.46, -5.95, -5.94, -4.8, -2.2, -3.16, -5.36, -5.81, -7.45, -6.57, -5.37, -4.34, -4.0, -3.4, -3.22, 0.0, -0.0, -4.4, -5.81, -3.47, -1.73, 0.0, 0.0, 0.0, 0.0, 0.0, -0.82, -1.23, 0.0, 0.0, 0.0, -0.86, -0.83, 0.0, 0.0, 0.0, 0.0, 0.0, 0.83, 1.71, 1.65, 2.39, 3.34, 4.81, 5.8, 5.93, 5.11, 4.98, 4.98, 4.21, 2.99, 1.7, 1.68, 0.94, 1.03, 1.14, 1.99, 4.47, 5.94, 6.88, 7.15, 6.71, 7.08, 6.65, 7.37, 7.12, 7.37, 7.37, 6.98, 6.79, 6.6, 5.37, 4.42, 5.49, 6.88, 7.6, -11.36, -11.03, -11.03, -10.75, -10.75, -10.75, -10.45, -10.45, -10.47, -10.13, -9.84, -9.5, -8.87, -7.78, -6.9, -5.51, -5.1, -4.93, -5.4, -5.86, -5.2, -4.58, -4.21, -2.41, 0.0, 3.2, 4.74, 4.74, 1.52, -3.47, -7.06, -7.89, -7.28, -5.59, -3.27, -2.44, -1.72, 3.13, 5.21, 4.0, 3.58, 3.48, 3.0, 3.91, 4.37, 5.46, 4.4, 3.51, 3.36, 2.33, 2.59, 1.76, 1.7, 0.83, 0.0, 0.0, 0.0, 0.0, 0.0, 0.0, 0.83, 0.86, 1.7, 4.3, 6.84, 7.51, 6.79, 5.06, 4.06, 3.23, 3.34, 1.65, 0.8, 0.0, 0.85, 1.55, 2.12, 1.84, 2.2, 4.47, 4.54, 5.21, 5.09, 5.36, 4.92, 5.29, 5.59, 6.36, 6.45, 6.88, 6.02, 5.34, 5.06, 4.87, 4.58, 6.0, 7.1, 7.15, -11.36, -11.03, -11.03, -11.03, -11.03, -10.75, -10.75, -10.76, -10.77, -10.77, -10.13, -9.8, -10.75, -9.48, -8.21, -7.36, -6.94, -6.56, -5.93, -6.48, -6.16, -5.4, -4.64, -2.71, 0.85, 6.01, 6.52, 6.44, 2.99, 0.0, -3.47, 0.0, 0.0, 1.98, 0.89, 0.0, 1.49, 7.06, 7.45, 6.64, 5.72, 5.72, 5.37, 5.31, 5.21, 5.76, 6.76, 6.4, 6.0, 5.0, 4.72, 3.39, 2.51, 1.64, 0.83, 0.0, 0.0, -0.86, -0.83, -0.86, 0.0, 1.75, 4.5, 7.68, 8.64, 7.51, 5.8, 4.21, 2.53, 1.6, 0.0, 0.0, -0.81, -0.76, 0.0, 0.0, 0.95, 1.14, 3.16, 4.02, 4.8, 3.63, 2.95, 2.84, 3.47, 3.58, 4.02, 4.92, 4.92, 4.82, 4.57, 4.22, 4.11, 5.06, 5.49, 6.88, 7.1, 7.1, -11.03, -11.03, -11.03, -11.03, -11.03, -11.03, -11.36, -11.38, -11.08, -10.77, -10.76, -10.43, -9.19, -8.56, -8.59, -8.42, -8.85, -8.85, -8.54, -7.56, -7.9, -7.9, -7.27, -4.0, 1.84, 6.51, 6.0, 5.72, 4.56, 1.49, 3.47, 7.15, 7.89, 7.47, 5.69, 4.14, 4.14, 6.82, 7.81, 7.21, 6.01, 4.26, 4.42, 3.77, 4.26, 5.89, 6.04, 6.15, 6.0, 5.0, 4.13, 4.13, 3.25, 2.49, 1.69, 0.85, 0.0, -0.85, -1.69, -1.68, 0.89, 6.55, 10.0, 9.65, 8.64, 7.24, 5.6, 3.6, 1.44, 0.0, -2.47, -3.59, -3.73, -3.16, -2.23, -0.83, 0.0, 2.48, 4.02, 4.47, 4.47, 3.9, 1.83, 0.88, 0.98, 1.98, 2.21, 2.8, 2.68, 3.13, 3.39, 4.0, 4.98, 5.58, 5.95, 6.88, 7.1, 7.1, -11.33, -11.33, -11.33, -11.33, -11.03, -11.03, -11.36, -11.38, -11.39, -11.08, -10.76, -10.75, -10.43, -9.5, -9.39, -8.18, -7.93, -5.1, -4.22, -3.4, -5.14, -5.7, -4.98, -2.2, 4.47, 5.81, 5.81, 6.07, 5.58, 5.06, 6.08, 6.88, 6.88, 5.58, 4.74, 3.91, 5.31, 7.56, 6.73, 6.04, 4.83, 4.34, 4.03, 5.03, 5.69, 6.11, 6.32, 5.21, 5.46, 5.46, 6.31, 6.83, 6.04, 6.18, 5.36, 5.36, 3.45, 0.0, -2.67, -1.19, 7.37, 11.33, 11.37, 11.02, 9.66, 8.42, 7.51, 5.06, 0.86, -2.54, -4.87, -6.0, -5.99, -4.71, -3.09, -2.4, 0.0, 3.58, 4.77, 4.92, 4.38, 4.38, 3.58, -0.0, -0.0, -0.0, -0.0, -0.0, -0.0, 1.9, 3.13, 4.47, 5.26, 5.37, 6.0, 6.45, 6.64, 7.08, -11.58, -11.33, -11.33, -11.33, -11.03, -11.36, -11.67, -11.67, -11.39, -11.08, -10.76, -10.75, -10.75, -10.47, -8.83, -6.88, -5.17, -3.91, -2.93, -2.15, -1.62, -1.14, 0.0, 1.18, 3.91, 5.21, 5.36, 2.6, 4.4, 5.21, 5.72, 6.32, 6.32, 5.49, 4.58, 4.95, 5.59, 6.18, 5.21, 4.4, 4.4, 4.96, 5.69, 6.63, 6.9, 6.21, 6.98, 7.33, 7.33, 7.81, 7.81, 8.43, 8.43, 8.8, 8.72, 8.72, 7.15, 0.96, -4.24, 4.4, 12.52, 13.65, 12.8, 12.04, 11.6, 11.28, 10.63, 7.64, 3.51, -0.85, -5.18, -6.88, -6.39, -5.84, -4.98, -3.58, -0.0, 2.48, 2.98, 3.13, 3.72, 4.4, 5.36, 1.27, -0.0, -0.88, -0.96, -0.98, -0.0, 0.87, 1.98, 3.39, 3.58, 4.77, 5.4, 6.17, 6.17, 6.64, -11.58, -11.58, -11.58, -11.92, -11.63, -11.63, -11.96, -11.67, -11.38, -11.38, -10.76, -10.45, -10.76, -11.08, -10.11, -8.37, -6.33, -4.7, -2.85, -2.32, -1.17, -0.56, 0.58, 1.13, 1.67, 1.73, 1.16, 1.26, 1.7, 1.58, 3.79, 5.15, 5.49, 5.37, 5.37, 5.24, 5.59, 4.96, 4.34, 4.2, 4.34, 5.69, 5.82, 5.21, 6.4, 6.4, 6.9, 7.6, 7.6, 7.6, 6.94, 6.94, 7.21, 7.89, 8.85, 9.46, 9.45, 3.4, -2.8, 8.06, 13.86, 13.18, 12.53, 12.09, 12.72, 12.45, 11.99, 11.02, 7.76, 5.49, -2.68, -5.51, -6.17, -5.81, -4.77, -2.48, -0.0, -0.0, -0.0, 0.0, 0.99, 4.09, 4.47, 5.36, 3.82, -0.0, -2.16, -1.55, -0.81, -0.0, -0.0, 1.4, 2.8, 4.02, 4.47, 4.92, 5.26, 6.17, -11.58, -11.58, -11.92, -11.92, -11.63, -11.96, -11.96, -11.67, -11.38, -11.06, -11.06, -11.06, -11.06, -11.08, -10.76, -9.83, -8.33, -6.48, -4.77, -4.1, -2.89, -1.7, -0.58, 0.0, 0.57, 0.57, 0.56, 0.57, 0.54, 0.57, 1.2, 3.79, 5.37, 5.49, 5.37, 5.69, 5.69, 4.96, 3.63, 3.6, 5.06, 5.21, 4.65, 4.84, 5.2, 6.0, 6.16, 7.47, 7.06, 7.06, 6.64, 6.64, 6.58, 7.01, 7.01, 5.75, 6.01, 2.97, 3.15, 9.83, 12.52, 12.91, 12.71, 12.71, 11.36, 11.11, 10.52, 9.6, 9.1, 7.2, 2.8, -3.72, -4.74, -4.89, -3.49, -0.0, -0.0, 2.21, 2.68, 2.21, 2.48, 3.22, 3.35, 3.13, 4.85, 4.02, -0.0, -1.14, -0.88, -0.88, -0.0, -0.0, 0.99, 1.4, 2.4, 4.02, 4.92, 5.81, -11.87, -11.92, -11.92, -11.92, -11.63, -11.96, -11.96, -11.96, -11.38, -11.06, -11.06, -11.06, -11.08, -11.08, -11.1, -10.47, -9.42, -8.3, -6.44, -5.26, -4.1, -3.44, -2.26, -1.11, -0.57, 0.0, 0.0, 0.0, 0.0, 0.0, 0.61, 1.16, 4.02, 5.37, 5.69, 6.98, 6.64, 5.36, 4.2, 3.63, 4.6, 6.0, 4.84, 4.84, 5.2, 6.23, 7.45, 7.06, 6.64, 6.0, 5.6, 5.64, 6.07, 5.21, 5.21, 4.74, 3.4, 2.44, 5.52, 11.03, 10.6, 10.65, 9.97, 9.97, 10.41, 9.89, 9.89, 8.8, 6.95, 4.4, 0.0, -4.29, -3.97, -3.22, -0.0, 4.47, 5.4, 5.58, 4.74, 4.19, 3.72, 3.0, 1.83, 0.0, 0.0, 4.77, 4.02, -0.0, -0.0, -0.0, -0.0, -0.0, -0.0, 1.2, 1.6, 4.47, 5.36, 5.36, -12.22, -11.92, -11.92, -11.92, -11.63, -11.63, -11.63, -11.63, -11.63, -11.36, -11.06, -11.38, -11.08, -11.08, -11.08, -10.76, -10.1, -9.0, -7.84, -6.66, -5.3, -4.63, -3.58, -2.37, -1.69, -0.58, 0.0, 0.0, 0.0, 0.0, 0.0, 0.54, 1.19, 3.91, 5.69, 6.08, 6.32, 5.53, 5.03, 5.2, 5.09, 5.51, 6.64, 7.45, 7.45, 7.06, 7.06, 6.64, 6.64, 6.64, 6.0, 5.6, 4.84, 4.84, 3.22, 1.52, 1.4, 3.15, 6.58, 8.73, 7.76, 6.9, 7.06, 6.64, 6.8, 7.47, 5.58, 6.32, 5.46, 2.97, -1.99, -5.2, -3.72, 1.08, 7.15, 8.8, 9.04, 7.9, 5.9, 5.06, 3.63, 2.69, 0.0, -1.27, -2.21, -0.0, 4.47, 4.47, 3.58, 2.53, -0.0, -0.0, 2.98, 3.9, 3.9, 4.47, 5.36, 5.36, -12.45, -12.45, -11.92, -11.92, -11.92, -11.63, -11.63, -11.63, -11.63, -11.36, -11.38, -11.38, -11.39, -11.39, -11.08, -10.76, -10.11, -9.45, -8.77, -7.63, -6.48, -5.15, -4.13, -2.94, -1.75, -0.57, -0.56, 0.0, 0.0, -0.56, 0.0, 0.0, 0.0, 2.82, 4.01, 5.43, 6.55, 7.28, 6.8, 6.64, 7.01, 6.65, 7.94, 6.94, 8.06, 7.6, 7.28, 6.52, 6.23, 6.0, 6.0, 6.0, 5.36, 4.74, 4.29, 3.0, 2.66, 4.14, 5.31, 5.59, 5.31, 4.29, 3.22, 3.79, 4.11, 3.93, 4.74, 4.56, 3.15, 1.4, -4.43, -4.19, -0.0, 7.6, 10.85, 10.98, 10.12, 8.05, 6.56, 5.0, 3.36, 2.57, 0.0, -3.16, -3.82, -0.0, 2.84, 4.92, 4.47, 4.02, 1.98, 2.68, 5.51, 6.26, 6.26, 5.36, 5.81, 5.81, -12.45, -12.45, -11.92, -11.92, -11.92, -11.63, -11.63, -11.63, -11.63, -11.63, -11.38, -11.38, -11.39, -11.39, -11.08, -10.47, -10.11, -10.1, -8.77, -7.66, -6.52, -5.85, -4.66, -2.85, -1.75, -1.19, -1.16, -1.12, -1.69, -1.71, -1.75, -1.16, -0.57, 0.53, 1.73, 4.74, 5.6, 6.4, 7.06, 7.45, 7.94, 7.94, 7.45, 7.89, 7.6, 6.98, 6.01, 5.72, 6.07, 6.07, 6.0, 5.72, 5.72, 5.72, 5.72, 5.06, 4.29, 3.91, 4.14, 3.8, 2.54, 2.66, 1.98, 2.4, 2.2, 3.16, 3.22, 3.2, 1.4, 0.0, 0.0, 2.67, 6.83, 10.58, 11.14, 9.89, 8.29, 6.8, 5.86, 4.17, 3.36, 2.57, 0.89, -3.13, 1.27, 3.22, 2.99, 3.93, 4.92, 5.26, 4.82, 5.73, 6.51, 6.71, 6.71, 6.64, 5.81, 5.81, -12.45, -12.09, -11.87, -11.58, -11.92, -11.92, -11.63, -11.63, -11.63, -11.63, -11.67, -11.99, -11.39, -11.39, -11.08, -12.13, -10.77, -10.11, -9.07, -7.7, -6.52, -6.48, -5.88, -4.81, -3.25, -3.53, -2.69, -3.39, -3.95, -2.75, -2.77, -1.8, -1.16, 0.0, 0.55, 1.8, 2.53, 2.79, 4.98, 6.94, 6.02, 6.36, 7.06, 7.47, 7.44, 6.64, 5.31, 6.4, 6.58, 7.01, 7.06, 7.47, 6.9, 6.9, 6.9, 6.28, 5.37, 5.03, 4.96, 4.0, 2.69, 1.4, 1.98, 2.84, 4.4, 4.6, 4.43, 2.82, 0.85, 1.28, 3.58, 7.46, 9.98, 9.76, 8.0, 5.56, 3.3, 2.49, 2.47, 2.61, 1.84, 0.94, 0.0, 0.0, 4.02, 4.29, 3.49, 3.22, 4.29, 4.92, 6.17, 6.71, 6.64, 6.21, 6.26, 6.26, 6.26, 6.26, -12.09, -12.09, -11.87, -11.87, -11.92, -11.92, -11.92, -11.92, -11.63, -11.63, -11.67, -11.99, -11.7, -11.39, -11.39, -10.77, -10.47, -10.13, -10.43, -9.12, -8.25, -7.03, -7.28, -7.32, -6.52, -5.72, -4.92, -3.47, -2.86, -1.95, -2.21, -1.84, -1.13, 0.0, 0.59, 1.16, 1.16, 1.61, 2.5, 3.07, 3.6, 3.88, 4.27, 5.08, 5.75, 6.64, 6.9, 7.01, 7.6, 8.05, 8.38, 8.48, 8.48, 8.06, 6.8, 6.82, 7.44, 5.69, 4.5, 2.58, 1.32, 1.52, 3.79, 5.64, 5.51, 5.6, 4.74, 3.77, 3.32, 3.53, 4.87, 6.31, 6.57, 4.74, 1.62, 0.0, -1.63, -1.61, 0.0, 0.85, 0.85, 0.89, 1.84, 3.0, 4.29, 4.02, 3.39, 3.48, 3.22, 4.6, 5.73, 6.26, 6.17, 5.73, 4.92, 6.26, 6.71, 6.71, -12.37, -12.09, -11.87, -11.87, -11.92, -11.92, -11.92, -11.92, -11.63, -11.96, -11.67, -11.99, -11.7, -11.39, -11.39, -11.1, -10.47, -10.13, -9.84, -10.83, -9.66, -7.95, -8.2, -7.95, -7.57, -5.86, -3.97, -2.77, -1.84, -0.95, -0.95, -0.57, 0.0, 0.0, 0.0, 0.61, 1.16, 1.88, 1.61, 2.5, 3.2, 3.7, 4.77, 5.7, 6.36, 8.63, 7.47, 8.05, 8.49, 8.94, 8.85, 8.6, 8.6, 8.6, 8.6, 7.6, 7.15, 6.32, 5.21, 1.32, 1.84, 4.0, 5.81, 6.51, 5.6, 4.89, 4.74, 4.42, 4.56, 4.13, 5.11, 4.81, 4.01, 0.0, -1.66, -3.19, -3.88, -2.7, 0.0, 0.85, 1.84, 1.75, 2.83, 3.2, 3.55, 3.91, 4.65, 4.38, 4.6, 3.22, 4.29, 4.98, 4.77, 3.9, 4.92, 6.26, 7.15, 7.15, -12.37, -12.37, -12.09, -12.22, -11.92, -11.92, -11.92, -11.92, -11.63, -11.96, -11.96, -11.99, -11.99, -11.7, -11.7, -11.39, -10.76, -10.47, -10.47, -10.13, -8.85, -7.57, -7.59, -7.96, -8.23, -6.92, -5.17, -3.45, -2.12, -1.11, -0.53, 0.0, 0.0, 0.0, 0.0, 0.61, 1.16, 1.16, 1.88, 2.5, 3.39, 4.43, 4.92, 5.81, 6.68, 6.51, 7.94, 8.05, 8.49, 8.94, 8.85, 9.29, 8.85, 9.03, 9.03, 8.63, 8.4, 7.81, 5.59, 3.0, 2.21, 3.58, 4.92, 4.98, 4.98, 4.89, 4.74, 4.42, 4.12, 5.1, 6.4, 8.72, 5.63, 0.0, -3.58, -3.6, -3.58, -2.68, 0.0, 0.89, 2.67, 2.4, 3.6, 3.99, 4.42, 4.87, 5.49, 5.95, 5.75, 3.22, 2.76, 2.84, 2.98, 3.39, 5.36, 7.15, 8.49, 8.49, -12.37, -12.37, -12.37, -12.45, -12.22, -11.92, -11.92, -11.92, -11.63, -11.96, -11.96, -11.99, -11.99, -11.7, -11.7, -11.39, -11.39, -10.77, -10.77, -10.13, -9.2, -7.53, -6.92, -6.96, -7.33, -7.6, -6.53, -4.51, -3.42, -2.33, -1.76, -1.19, -0.51, 0.0, 0.0, 0.0, 0.61, 1.16, 1.4, 1.61, 2.91, 4.02, 4.88, 5.26, 6.23, 6.26, 8.05, 7.94, 8.49, 8.94, 9.39, 9.29, 9.29, 9.29, 9.03, 9.03, 9.06, 9.24, 8.4, 5.37, 4.57, 4.38, 4.82, 4.57, 4.6, 4.89, 4.74, 4.58, 3.8, 4.5, 6.58, 7.56, 1.4, -0.0, -1.73, -1.83, -1.8, -1.58, 0.0, 1.8, 2.6, 3.77, 3.77, 4.42, 5.69, 5.69, 5.84, 6.6, 6.99, 6.57, 2.68, 1.13, 1.9, 3.58, 6.26, 8.05, 8.49, 8.49, -12.37, -12.37, -12.37, -12.09, -12.09, -11.87, -11.92, -11.92, -11.96, -11.96, -11.96, -11.67, -11.99, -11.99, -11.7, -11.39, -11.39, -11.39, -10.47, -10.47, -9.47, -8.81, -7.53, -6.92, -6.7, -6.97, -6.96, -6.29, -5.2, -4.05, -3.3, -2.23, -1.67, -1.08, -0.59, 0.0, 0.0, 0.53, 0.53, 1.2, 2.15, 3.13, 3.98, 4.6, 5.31, 5.57, 7.94, 8.38, 8.41, 8.94, 9.39, 9.39, 9.39, 9.76, 9.54, 9.46, 8.9, 9.68, 9.46, 8.0, 6.57, 6.16, 5.6, 5.51, 6.16, 6.21, 5.49, 5.31, 4.26, 4.5, 3.8, 1.25, 0.89, 0.0, 0.0, -0.0, -0.0, -0.0, 0.0, 1.58, 2.0, 3.22, 4.01, 4.74, 5.37, 5.69, 6.11, 6.55, 6.82, 7.2, 4.77, 2.24, 0.0, 3.58, 6.71, 8.05, 8.46, 8.46, -12.37, -12.37, -12.37, -12.37, -12.09, -12.09, -11.92, -11.92, -11.96, -11.96, -11.96, -11.96, -11.99, -11.99, -11.7, -11.39, -11.39, -11.39, -11.06, -10.47, -10.13, -9.47, -8.16, -7.53, -6.68, -6.31, -6.71, -6.97, -6.29, -5.2, -4.57, -3.49, -2.73, -1.67, -1.08, -0.59, 0.0, 0.0, 0.0, 0.61, 1.2, 2.4, 3.09, 3.88, 4.55, 4.93, 4.8, 5.09, 5.7, 6.16, 6.68, 9.39, 9.39, 9.83, 9.76, 9.32, 9.39, 8.94, 9.74, 9.04, 8.8, 7.2, 7.2, 7.63, 7.63, 7.76, 6.79, 6.01, 5.36, 2.69, 0.89, 0.0, 1.2, 1.62, 1.71, 0.85, 0.74, 1.19, 2.84, 3.13, 3.39, 4.22, 4.84, 5.43, 5.84, 6.11, 6.45, 6.79, 7.15, 6.01, 6.18, 3.22, 1.66, 4.4, 6.71, 7.6, 7.89, 7.89, -12.37, -12.37, -12.37, -12.37, -12.09, -12.09, -12.09, -12.16, -12.51, -12.22, -11.96, -11.96, -11.67, -11.99, -11.99, -11.7, -11.39, -11.39, -11.39, -10.47, -10.47, -10.13, -9.48, -8.18, -7.55, -6.94, -6.58, -6.33, -6.58, -6.31, -5.67, -4.6, -4.0, -2.92, -2.36, -1.08, -0.59, 0.0, 0.0, 0.0, 0.61, 1.2, 2.17, 3.32, 4.0, 4.29, 4.55, 5.09, 5.7, 6.16, 6.61, 6.61, 9.39, 10.28, 10.28, 10.28, 9.39, 9.39, 9.76, 9.89, 8.55, 8.18, 7.76, 8.56, 8.3, 8.4, 7.81, 7.4, 5.21, 3.49, 1.76, 0.0, 1.61, 2.5, 3.3, 2.49, 0.71, 0.0, 1.6, 4.4, 4.98, 5.36, 5.29, 5.75, 5.82, 6.55, 6.79, 7.15, 7.06, 5.94, 6.04, 4.46, 3.2, 4.81, 6.51, 7.85, 7.71, 7.71, -12.37, -12.37, -12.37, -12.37, -12.37, -12.09, -12.45, -12.16, -12.51, -12.22, -12.22, -12.22, -11.96, -11.67, -11.99, -11.7, -11.39, -11.39, -11.39, -11.08, -10.47, -10.13, -9.48, -8.83, -8.2, -7.57, -6.94, -6.58, -6.33, -6.33, -5.92, -5.69, -5.29, -4.66, -4.05, -3.0, -2.4, -1.11, -0.59, 0.0, 0.0, 0.0, 0.59, 1.79, 3.14, 4.11, 4.84, 5.31, 5.57, 5.7, 6.16, 6.61, 6.61, 7.13, 9.39, 9.39, 9.39, 9.39, 8.9, 8.99, 9.45, 8.17, 9.45, 9.49, 9.6, 7.81, 7.76, 6.04, 5.06, 3.51, 1.69, 0.86, 0.83, 1.66, 3.28, 3.28, 0.83, -0.82, -0.0, 4.74, 5.58, 5.6, 5.36, 5.09, 5.75, 6.44, 7.58, 7.06, 6.18, 6.04, 6.14, 6.05, 5.36, 5.69, 6.44, 7.03, 7.6, 7.6, -12.37, -12.37, -12.37, -12.37, -12.37, -12.09, -12.45, -12.16, -12.16, -12.51, -12.22, -12.22, -11.96, -11.96, -11.67, -11.99, -11.7, -11.39, -11.08, -11.08, -10.77, -10.42, -10.13, -9.49, -8.85, -8.2, -7.57, -6.92, -6.7, -6.58, -6.08, -5.95, -5.7, -5.32, -4.69, -3.83, -2.8, -1.73, -1.11, -0.59, 0.0, 0.0, 0.57, 0.0, 0.57, 2.21, 4.11, 5.6, 5.57, 5.7, 6.16, 6.6, 6.61, 7.06, 7.07, 9.39, 9.39, 9.39, 9.35, 9.06, 8.56, 8.72, 9.13, 9.36, 8.82, 9.09, 6.83, 5.29, 4.25, 2.6, 0.86, 0.0, 0.0, 0.0, 0.0, 0.0, 0.8, 0.0, -0.0, 1.73, 3.97, 3.64, 2.91, 4.92, 5.09, 5.75, 6.07, 6.45, 5.89, 6.18, 6.04, 6.7, 5.9, 6.24, 6.32, 7.06, 7.06, 7.06, -12.65, -12.65, -12.37, -12.37, -12.37, -12.09, -12.45, -12.45, -12.16, -12.16, -12.22, -12.22, -11.96, -11.96, -11.67, -11.99, -11.99, -11.08, -11.08, -11.08, -10.77, -10.47, -10.13, -9.49, -9.22, -8.86, -8.22, -7.57, -7.19, -6.56, -6.33, -5.95, -5.7, -5.32, -5.08, -4.45, -4.08, -3.04, -1.73, -1.11, -0.59, 0.0, 0.59, 1.99, 2.76, 1.7, 3.43, 5.37, 5.57, 5.7, 5.7, 6.16, 6.6, 6.61, 7.06, 7.06, 9.83, 9.83, 9.35, 9.24, 9.24, 8.99, 9.24, 9.2, 8.79, 7.59, 6.98, 5.29, 3.36, 1.69, 0.82, 0.0, 0.0, -0.86, -1.61, -1.57, 0.0, 0.85, 0.0, -0.0, 1.73, 2.86, 2.79, 2.49, 4.47, 4.85, 5.2, 5.49, 6.01, 5.89, 6.04, 5.9, 5.95, 6.05, 6.14, 6.14, 6.64, 6.64, -12.65, -12.65, -12.37, -12.37, -12.37, -12.09, -12.45, -12.45, -12.16, -12.16, -12.51, -12.22, -11.96, -11.96, -11.96, -11.67, -11.67, -11.38, -11.08, -11.08, -10.77, -10.47, -10.76, -10.13, -9.5, -8.86, -8.59, -8.22, -7.57, -6.94, -6.31, -5.69, -5.7, -5.72, -5.32, -5.09, -4.71, -3.42, -2.82, -1.76, -1.13, 0.0, 0.0, 1.6, 2.86, 3.79, 5.26, 5.31, 5.09, 5.24, 5.34, 5.78, 6.16, 6.16, 6.61, 7.06, 7.06, 7.15, 9.35, 9.35, 9.24, 8.99, 8.8, 8.06, 7.68, 7.59, 7.9, 7.56, 4.56, 2.57, 2.47, 3.53, 3.23, 1.61, 0.0, -1.61, -0.83, 0.0, 0.0, 0.0, -0.0, 0.55, 1.58, 2.21, 2.0, 4.02, 4.38, 4.19, 5.06, 4.83, 4.71, 4.2, 3.78, 6.0, 5.52, 5.28, 6.14, 6.14, -12.65, -12.65, -12.65, -12.37, -12.37, -12.09, -12.45, -12.45, -12.16, -12.16, -12.16, -11.92, -11.96, -11.96, -11.96, -11.67, -11.67, -11.38, -11.38, -11.38, -10.77, -10.76, -10.45, -10.13, -9.5, -9.21, -8.59, -8.22, -7.57, -6.92, -6.94, -6.31, -5.92, -5.7, -5.72, -5.08, -4.69, -4.05, -3.21, -2.18, -1.76, -0.59, 0.0, 0.61, 1.84, 4.29, 5.81, 4.88, 4.8, 5.24, 5.33, 5.78, 5.78, 6.23, 6.6, 7.06, 7.13, 7.6, 7.6, 9.35, 8.77, 8.72, 8.43, 7.68, 6.95, 6.95, 6.95, 7.9, 7.15, 5.46, 5.36, 6.15, 6.65, 5.79, 2.43, 0.0, -0.83, -0.86, 0.0, 0.86, 0.0, -0.0, -0.0, 0.98, 1.16, 1.24, 1.27, 3.6, 3.47, 3.2, 2.18, 2.44, 2.35, 2.35, 4.4, 4.71, 4.5, 4.5, -12.65, -12.65, -12.65, -12.37, -12.37, -12.37, -12.45, -12.45, -12.45, -12.16, -11.92, -11.92, -11.92, -11.96, -11.96, -11.96, -11.67, -11.38, -11.38, -11.06, -10.76, -10.76, -10.45, -10.13, -9.84, -9.5, -8.87, -8.59, -9.11, -7.6, -7.59, -6.94, -6.31, -6.33, -5.7, -5.32, -5.08, -4.69, -4.05, -3.45, -2.4, -1.11, -0.59, 0.0, 1.0, 1.9, 2.91, 3.58, 4.44, 4.89, 5.33, 5.36, 5.81, 5.81, 6.26, 6.61, 7.13, 7.15, 7.15, 7.13, 8.77, 8.3, 7.41, 7.02, 6.95, 6.18, 6.32, 6.58, 6.87, 6.5, 6.04, 6.15, 6.3, 6.19, 4.12, 1.63, 0.0, 0.0, 0.82, 2.25, 3.76, 2.9, 2.4, -0.0, -0.0, 0.54, 0.6, 0.8, 2.99, 1.55, 0.76, 0.76, 0.76, 1.58, 3.06, 3.06, 3.7, 3.7, -12.65, -12.65, -12.65, -12.37, -12.37, -12.37, -12.09, -12.45, -12.45, -12.22, -11.92, -11.92, -11.92, -11.92, -11.63, -11.63, -11.63, -11.36, -11.06, -11.06, -10.76, -10.76, -10.45, -9.84, -10.13, -9.5, -9.21, -8.59, -8.24, -8.84, -7.61, -7.6, -6.96, -6.31, -5.69, -5.7, -5.32, -5.08, -4.69, -4.05, -2.8, -1.73, -1.11, 0.0, 0.0, 0.53, 1.24, 2.63, 4.02, 4.89, 5.36, 5.36, 5.81, 5.81, 6.26, 6.71, 6.68, 6.71, 7.13, 7.13, 6.94, 7.82, 8.37, 7.06, 7.06, 7.06, 6.32, 5.89, 5.7, 5.32, 5.9, 4.92, 3.39, 2.41, 3.2, 3.35, 3.17, 3.19, 3.68, 4.48, 4.39, 4.39, 3.76, 1.6, -0.0, -0.0, -0.0, 0.0, 0.96, 0.94, 0.0, 0.0, 0.0, 0.0, 0.79, 2.69, 2.99, 2.99, -12.65, -12.65, -12.65, -12.37, -12.37, -12.37, -12.09, -12.09, -11.87, -11.87, -11.58, -11.92, -11.92, -11.92, -11.63, -11.63, -11.36, -11.36, -11.06, -11.06, -10.76, -10.45, -10.45, -10.13, -10.13, -9.5, -9.21, -8.87, -8.87, -7.59, -7.33, -7.61, -7.61, -6.97, -6.33, -5.95, -5.7, -5.06, -5.32, -4.44, -3.4, -2.8, -1.73, -0.63, 0.0, 0.0, 0.61, 1.9, 3.58, 4.92, 5.36, 5.36, 5.81, 6.23, 6.68, 6.68, 6.71, 6.71, 6.71, 7.13, 9.97, 9.63, 8.93, 7.9, 7.15, 7.06, 7.06, 6.18, 6.58, 6.24, 6.15, 5.2, 3.82, 0.83, 1.64, 4.04, 4.98, 4.81, 4.31, 3.59, 2.18, 2.22, 2.19, 1.5, 0.0, -1.26, -0.99, -0.63, 0.0, 0.0, 0.0, 0.0, 0.0, 0.0, 0.0, 1.55, 2.26, 2.26, -12.65, -12.65, -12.65, -12.37, -12.37, -12.37, -12.37, -11.87, -11.87, -11.87, -11.87, -11.58, -11.92, -11.92, -11.58, -11.58, -11.36, -11.36, -11.36, -11.06, -10.76, -10.45, -10.45, -10.13, -9.82, -9.5, -9.21, -8.87, -8.87, -8.22, -7.59, -6.96, -6.97, -6.98, -6.71, -6.33, -5.69, -5.7, -5.29, -4.42, -4.03, -3.4, -2.32, -1.16, -0.55, 0.0, 0.0, 1.2, 3.07, 4.47, 5.36, 5.36, 5.78, 6.16, 6.61, 7.06, 7.07, 7.58, 7.58, 8.03, 7.97, 10.05, 8.93, 8.37, 8.37, 7.9, 7.06, 6.18, 6.04, 6.31, 6.05, 6.4, 4.98, 2.47, 2.49, 3.3, 4.1, 4.1, 2.43, 0.81, 0.0, 0.0, -0.73, 0.0, 0.0, -1.34, -1.79, -2.0, -0.89, 0.0, 0.0, 0.0, 0.0, 0.0, 0.0, 0.0, 1.63, 1.63, -12.27, -12.27, -12.27, -12.65, -12.37, -12.37, -12.16, -11.87, -11.87, -11.87, -11.87, -11.58, -11.58, -11.58, -11.58, -11.33, -11.03, -11.36, -11.36, -10.75, -10.45, -10.45, -10.13, -10.13, -9.82, -9.5, -9.21, -9.21, -8.87, -8.87, -7.96, -6.94, -6.96, -6.71, -6.98, -6.98, -6.33, -5.69, -5.29, -5.06, -4.42, -3.8, -2.92, -2.14, -1.67, -1.07, -1.08, 0.0, 2.15, 4.02, 5.36, 5.78, 5.7, 6.16, 6.47, 6.94, 7.4, 7.84, 7.87, 8.47, 8.42, 8.0, 8.93, 7.81, 7.76, 7.27, 6.32, 6.18, 6.18, 6.48, 6.5, 6.98, 5.92, 4.13, 2.41, 1.66, 2.41, 2.43, 0.82, 0.0, -0.72, -1.52, -2.21, -2.28, -1.6, -2.51, -2.8, -1.84, 0.0, 0.0, 1.03, 1.98, 0.96, 0.0, 0.0, 0.96, 1.84, 1.84, -12.27, -12.27, -12.27, -12.27, -12.0, -11.8, -11.8, -11.8, -11.52, -11.87, -11.87, -11.87, -11.63, -11.33, -11.33, -11.33, -11.33, -11.03, -11.03, -10.75, -10.75, -10.75, -10.13, -10.13, -9.82, -9.5, -9.5, -9.21, -8.87, -8.87, -8.23, -7.59, -6.94, -6.31, -6.33, -6.71, -6.61, -6.08, -5.95, -5.29, -4.63, -4.42, -3.35, -3.49, -2.32, -2.36, -2.2, -1.13, 0.65, 3.82, 5.33, 5.7, 5.57, 6.04, 6.47, 6.94, 7.26, 7.69, 8.3, 8.42, 8.42, 8.21, 8.93, 8.18, 7.76, 7.56, 6.79, 7.06, 7.06, 6.64, 6.04, 6.7, 6.0, 6.19, 4.04, 1.65, 0.83, 0.0, 0.0, 0.0, 0.0, -1.45, -2.21, -2.97, -2.35, -2.31, -1.63, -0.82, 0.0, 0.96, 1.98, 1.84, 1.84, 0.96, 1.05, 1.83, 2.53, 2.76, -12.27, -12.27, -12.27, -12.27, -11.8, -11.8, -11.8, -11.8, -11.8, -11.52, -11.52, -11.28, -11.28, -10.99, -11.33, -11.33, -11.33, -11.33, -11.03, -10.75, -10.75, -10.43, -10.13, -9.82, -9.82, -9.82, -9.5, -9.21, -8.87, -8.87, -8.23, -7.96, -7.59, -6.94, -6.56, -6.58, -6.33, -6.34, -5.95, -5.7, -5.04, -4.63, -3.97, -3.51, -2.26, -2.29, -2.82, -2.22, 0.0, 3.35, 5.09, 5.51, 5.4, 5.81, 6.3, 6.79, 7.21, 7.26, 8.17, 8.33, 8.42, 8.33, 9.6, 7.81, 7.15, 8.18, 8.54, 7.41, 7.06, 6.64, 6.64, 6.5, 6.3, 6.28, 6.42, 4.13, 1.71, 0.0, 0.0, 0.0, -0.76, -0.72, -1.52, -1.55, -0.78, 0.0, 0.0, 0.0, 0.89, 0.89, 0.95, 0.89, 1.73, 1.98, 1.84, 1.7, 2.53, 2.53, -12.27, -12.27, -12.27, -12.27, -12.09, -11.8, -11.8, -11.8, -11.8, -11.28, -11.28, -11.28, -11.28, -11.28, -10.99, -10.99, -11.33, -11.33, -11.33, -10.43, -10.43, -10.13, -10.13, -9.82, -9.82, -9.82, -9.21, -9.21, -8.87, -8.87, -8.23, -8.23, -7.59, -7.59, -6.94, -6.56, -6.07, -6.33, -5.95, -5.95, -5.04, -5.04, -4.63, -3.32, -2.49, -2.26, -2.8, -2.4, 0.0, 3.48, 4.93, 5.08, 5.08, 5.6, 6.0, 6.51, 6.6, 7.51, 8.17, 8.33, 8.33, 8.33, 7.01, 8.54, 8.54, 8.54, 7.81, 7.06, 7.06, 6.64, 6.18, 5.46, 5.2, 6.2, 8.56, 7.93, 4.98, 1.7, 0.0, 0.0, 0.0, 1.55, 2.35, 2.47, 3.33, 3.0, 3.2, 2.67, 1.84, 1.84, 1.84, 0.84, 0.94, 0.95, 1.03, 1.84, 1.83, 2.53, -11.9, -11.9, -11.72, -11.72, -11.72, -11.44, -11.44, -11.44, -11.23, -11.23, -10.94, -11.28, -11.28, -11.28, -10.99, -10.99, -10.99, -10.99, -10.72, -10.43, -10.43, -10.13, -10.13, -9.82, -9.82, -9.5, -9.21, -9.21, -8.87, -8.87, -8.59, -8.23, -8.23, -7.59, -7.19, -6.53, -6.29, -6.31, -6.33, -5.69, -5.69, -5.29, -4.63, -3.97, -2.83, -2.49, -1.1, -0.58, 1.14, 3.47, 4.12, 4.11, 4.65, 5.21, 5.75, 6.28, 6.6, 7.51, 7.74, 8.3, 8.33, 8.3, 10.41, 9.04, 9.04, 8.54, 7.15, 7.56, 6.32, 6.18, 6.04, 5.46, 5.32, 5.2, 7.13, 9.17, 9.12, 6.52, 5.0, 4.34, 4.71, 5.38, 5.38, 5.38, 5.28, 4.71, 4.07, 3.21, 2.57, 1.75, 1.67, 0.89, 0.84, 0.89, 0.89, 0.96, 1.99, 1.99, -11.72, -11.72, -11.72, -11.72, -11.72, -11.72, -11.44, -11.23, -11.23, -11.23, -10.94, -10.94, -10.94, -11.28, -11.28, -10.99, -10.99, -10.72, -10.72, -10.72, -10.43, -10.43, -10.13, -9.82, -9.82, -9.21, -9.5, -9.21, -8.87, -8.87, -8.87, -8.23, -8.23, -7.59, -7.59, -6.94, -6.53, -6.29, -6.31, -5.92, -5.69, -5.29, -4.63, -4.42, -3.49, -2.28, -0.56, 0.0, 1.71, 2.75, 3.0, 3.22, 4.11, 4.71, 5.29, 5.86, 6.8, 7.31, 7.51, 8.17, 8.3, 7.87, 7.26, 9.04, 9.04, 8.54, 7.56, 6.64, 6.32, 5.76, 5.46, 4.56, 4.23, 4.4, 5.4, 6.2, 7.93, 8.96, 8.16, 7.36, 6.44, 6.44, 5.89, 5.99, 5.0, 4.3, 3.25, 2.39, 1.76, 1.68, 0.89, 0.85, 0.89, 0.89, 0.96, 1.99, 1.99, 1.99, -11.99, -11.99, -11.72, -11.72, -11.72, -11.72, -11.23, -11.23, -11.23, -11.23, -10.94, -10.94, -10.94, -10.94, -10.94, -10.69, -10.4, -10.4, -10.4, -10.72, -10.43, -10.43, -10.13, -9.82, -9.5, -9.21, -9.5, -9.21, -8.87, -8.87, -8.87, -8.23, -8.23, -7.59, -7.59, -7.19, -6.92, -6.27, -6.29, -5.89, -5.69, -5.29, -4.63, -3.97, -3.32, -2.83, -1.11, 0.0, 0.56, 1.16, 1.76, 2.32, 3.22, 4.12, 5.29, 5.86, 6.56, 7.2, 7.51, 7.74, 7.74, 7.74, 7.4, 9.97, 9.04, 7.56, 7.56, 6.95, 5.89, 5.21, 4.56, 4.34, 4.2, 4.25, 4.25, 4.17, 5.55, 7.4, 8.33, 8.25, 7.53, 6.4, 5.9, 4.39, 3.68, 2.25, 1.56, 0.82, 0.0, 0.0, 0.0, 0.0, 0.0, 0.89, 1.14, 1.05, 1.05, 1.05, -11.62, -11.62, -11.35, -11.35, -11.35, -11.52, -11.16, -10.88, -11.23, -11.23, -11.23, -10.69, -10.69, -10.69, -10.69, -10.69, -10.69, -10.69, -10.4, -10.72, -10.72, -10.13, -9.82, -9.82, -9.21, -9.21, -9.21, -9.21, -8.87, -8.87, -8.87, -8.23, -8.23, -7.85, -7.59, -7.32, -7.32, -6.92, -6.53, -6.29, -5.67, -5.04, -4.63, -3.97, -3.32, -2.83, -2.3, -1.12, 0.0, 0.0, 1.18, 1.65, 2.8, 3.84, 4.74, 5.86, 6.41, 6.56, 7.31, 7.69, 7.74, 7.69, 7.4, 7.26, 9.2, 7.56, 6.3, 6.32, 6.18, 5.63, 5.46, 5.36, 5.21, 4.4, 4.25, 4.3, 4.93, 5.62, 6.54, 7.4, 8.03, 6.7, 5.18, 3.66, 2.22, 0.71, 0.0, 0.0, 0.0, 0.0, 0.0, 0.0, 0.0, 0.0, 0.0, 0.0, 0.0, 0.0, -11.62, -11.62, -11.62, -11.35, -11.16, -11.16, -11.16, -10.88, -10.88, -10.65, -10.65, -10.36, -10.36, -10.69, -10.69, -10.69, -10.69, -10.69, -10.4, -10.4, -10.4, -10.12, -9.82, -9.5, -9.21, -9.21, -9.21, -8.87, -8.87, -8.87, -8.59, -8.23, -8.23, -8.23, -7.96, -7.57, -7.57, -7.32, -6.94, -6.29, -5.89, -5.26, -4.6, -3.97, -3.49, -2.83, -2.3, -1.67, -0.57, 0.0, 0.55, 1.76, 2.32, 3.22, 4.12, 5.59, 5.86, 6.41, 7.2, 7.51, 7.69, 7.26, 7.26, 7.69, 7.31, 7.56, 6.64, 6.45, 6.32, 6.18, 5.36, 5.63, 5.21, 4.4, 4.25, 4.13, 4.06, 4.0, 5.02, 6.6, 7.2, 6.42, 4.81, 2.97, 1.5, 0.0, -0.76, -1.5, -1.68, -1.33, -1.32, -0.95, 0.0, 0.0, 0.0, 0.0, 0.0, 0.0, -11.44, -11.44, -11.44, -11.16, -11.16, -11.16, -11.16, -10.88, -10.65, -10.65, -10.65, -10.65, -10.36, -10.36, -10.36, -10.36, -10.36, -10.69, -10.4, -10.4, -10.12, -10.12, -10.12, -9.5, -9.21, -9.21, -9.21, -8.87, -8.87, -8.59, -8.59, -8.23, -8.51, -8.22, -8.22, -8.22, -7.96, -7.59, -6.94, -6.56, -5.89, -5.02, -4.6, -3.94, -3.49, -2.83, -2.3, -1.67, -1.2, 0.0, 0.0, 1.18, 2.29, 3.0, 4.45, 5.35, 5.59, 6.41, 6.8, 7.51, 7.26, 7.26, 7.26, 7.69, 7.51, 8.18, 7.81, 7.81, 7.21, 6.32, 5.89, 5.21, 4.2, 4.4, 3.51, 3.39, 3.42, 4.1, 4.98, 5.86, 6.47, 6.42, 5.67, 3.59, 1.5, 0.0, -1.48, -3.16, -3.51, -2.83, -1.73, -0.95, -0.96, 0.0, 0.0, 0.0, 0.0, 0.0, -11.07, -11.07, -11.44, -11.07, -11.16, -11.16, -11.16, -10.94, -10.65, -10.65, -10.65, -10.65, -10.36, -10.36, -10.36, -10.36, -10.36, -10.09, -10.12, -10.12, -10.12, -9.8, -9.8, -9.5, -9.21, -9.21, -9.21, -8.87, -8.87, -8.59, -8.87, -8.87, -8.59, -8.86, -8.86, -8.22, -7.96, -7.59, -6.94, -6.31, -5.67, -5.26, -4.6, -4.12, -3.45, -3.3, -2.83, -1.75, -1.12, -0.57, 0.0, 0.55, 1.63, 2.29, 4.12, 4.45, 5.35, 5.59, 6.41, 7.01, 7.01, 7.21, 6.94, 7.4, 7.69, 8.93, 8.93, 8.54, 7.56, 5.89, 5.21, 4.56, 4.2, 3.65, 3.51, 3.39, 4.3, 5.06, 5.8, 6.65, 5.73, 6.35, 6.54, 5.02, 1.5, 0.0, -1.54, -3.06, -4.71, -4.03, -2.82, -1.84, -1.05, 0.0, 0.0, 0.0, 0.0, 0.0, -11.07, -11.07, -11.07, -11.07, -10.8, -10.8, -10.59, -10.59, -10.3, -10.3, -10.65, -10.65, -10.65, -10.09, -10.09, -10.09, -10.09, -10.09, -10.09, -9.8, -9.8, -9.8, -9.8, -9.5, -9.21, -9.21, -9.21, -8.87, -8.87, -8.87, -8.87, -8.86, -8.86, -8.86, -8.86, -8.59, -7.96, -7.59, -6.96, -6.31, -5.92, -5.26, -4.8, -4.12, -3.94, -3.45, -2.8, -2.3, -1.67, -0.57, 0.0, 0.55, 1.18, 2.29, 3.85, 4.45, 5.06, 5.59, 6.41, 7.01, 6.6, 6.79, 6.94, 6.94, 6.94, 8.3, 8.8, 8.43, 7.41, 7.06, 6.18, 5.36, 3.49, 3.49, 3.65, 4.25, 4.8, 5.86, 6.56, 6.43, 5.67, 5.73, 6.8, 5.62, 3.07, 0.78, 0.0, -1.83, -4.11, -4.11, -3.48, -2.2, 0.0, 0.0, 0.0, 0.0, 0.0, 0.0, -11.07, -11.07, -11.07, -11.07, -10.8, -10.59, -10.59, -10.59, -10.3, -10.3, -10.3, -10.3, -10.06, -9.77, -9.77, -10.09, -10.09, -10.09, -10.09, -10.09, -9.8, -9.8, -9.8, -9.5, -9.21, -9.21, -9.21, -8.87, -8.87, -9.16, -8.86, -9.21, -9.21, -8.86, -8.86, -8.59, -8.23, -7.6, -6.96, -6.58, -5.92, -5.26, -5.26, -4.6, -4.12, -3.45, -2.8, -2.3, -1.67, -1.14, 0.0, 0.0, 0.55, 2.77, 3.45, 3.85, 4.75, 5.35, 6.03, 6.28, 6.51, 6.1, 6.3, 6.47, 6.6, 8.48, 8.4, 8.8, 8.82, 8.06, 6.95, 6.18, 4.74, 3.63, 4.2, 5.29, 5.76, 6.0, 5.86, 5.93, 5.11, 5.11, 4.98, 4.76, 3.29, 3.6, 2.97, 0.0, -2.21, -3.35, -3.82, -2.21, -0.99, 0.0, 0.0, 0.0, 0.0, 0.0, -11.07, -11.07, -11.07, -10.87, -10.87, -10.59, -10.59, -10.59, -10.59, -10.3, -10.06, -10.06, -10.06, -10.06, -9.77, -9.77, -10.09, -10.09, -10.09, -10.09, -9.8, -9.8, -9.5, -9.5, -9.21, -9.21, -9.5, -9.5, -9.21, -9.21, -9.5, -9.5, -9.5, -8.86, -8.59, -8.23, -7.59, -6.96, -6.7, -6.33, -5.92, -5.26, -5.26, -4.8, -4.12, -3.94, -3.45, -2.42, -1.75, -1.12, -0.57, 0.0, 0.58, 2.26, 2.77, 3.45, 4.12, 5.35, 5.86, 6.28, 6.1, 6.0, 5.88, 6.04, 6.16, 5.99, 8.06, 8.56, 8.8, 8.42, 7.68, 7.27, 6.18, 5.89, 5.21, 6.04, 5.9, 5.76, 5.0, 4.17, 4.06, 4.06, 3.96, 3.36, 2.68, 2.53, 2.21, 1.79, 0.0, -1.2, -2.8, -2.8, -2.53, -1.41, -1.19, -1.05, -1.05, -1.05, -10.51, -10.51, -10.51, -10.51, -10.51, -10.51, -10.23, -10.23, -10.59, -10.06, -10.06, -10.06, -10.06, -10.06, -9.77, -9.77, -9.77, -9.77, -9.77, -10.09, -9.8, -9.5, -9.5, -9.5, -9.21, -9.5, -9.5, -9.21, -9.5, -9.5, -9.5, -9.5, -9.21, -8.59, -8.59, -7.96, -7.6, -6.7, -6.58, -6.33, -5.92, -5.67, -5.02, -5.02, -4.6, -3.94, -3.45, -2.97, -2.3, -1.12, -0.57, 0.0, 0.0, 1.73, 2.29, 3.45, 3.85, 4.74, 5.49, 5.75, 5.75, 5.6, 5.81, 5.57, 5.7, 5.7, 7.37, 7.81, 7.42, 7.81, 7.76, 7.27, 6.83, 6.95, 6.18, 6.48, 6.31, 5.14, 4.44, 3.39, 3.29, 4.17, 3.23, 2.51, 2.0, 0.99, -0.0, -0.0, 0.0, 0.0, -1.2, -1.2, -1.6, -2.23, -2.0, -1.19, -1.19, -1.19, -10.51, -10.51, -10.51, -10.51, -10.51, -10.51, -10.51, -10.23, -10.01, -10.01, -9.72, -9.72, -10.06, -10.06, -9.77, -9.77, -9.77, -9.77, -9.48, -9.48, -9.19, -9.5, -9.5, -9.5, -9.5, -9.5, -9.84, -9.84, -9.84, -9.5, -9.5, -9.21, -8.59, -8.59, -8.24, -7.6, -6.96, -6.97, -6.58, -6.07, -5.67, -5.67, -5.23, -5.02, -4.6, -3.94, -3.45, -2.97, -2.3, -1.67, -1.12, -0.57, 0.55, 1.73, 2.29, 2.77, 3.45, 4.45, 5.29, 5.21, 5.21, 5.47, 5.31, 5.51, 5.09, 5.24, 4.34, 4.11, 6.6, 6.79, 6.32, 6.18, 6.53, 6.83, 6.04, 6.48, 5.46, 4.92, 4.25, 3.51, 3.25, 3.29, 3.25, 3.39, 1.2, -0.0, -0.0, -0.0, -1.79, -1.9, 0.0, 0.0, 0.0, 0.0, 0.0, 0.0, 0.0, 0.0, -10.51, -10.51, -10.51, -10.51, -10.51, -10.51, -10.51, -10.01, -10.01, -10.01, -10.01, -9.72, -9.72, -10.06, -9.77, -9.48, -9.48, -9.48, -9.48, -9.48, -9.19, -9.19, -9.5, -9.5, -9.82, -10.13, -9.84, -9.84, -9.84, -9.5, -9.21, -8.86, -8.87, -7.96, -7.6, -7.33, -6.97, -6.97, -6.58, -6.31, -6.31, -5.67, -5.67, -5.02, -4.6, -4.12, -3.45, -2.97, -2.3, -1.75, -1.12, -0.57, 0.58, 1.18, 1.76, 2.29, 3.0, 3.84, 4.71, 5.21, 4.84, 5.08, 5.08, 4.9, 5.09, 4.6, 4.11, 3.7, 6.21, 6.11, 5.89, 6.18, 6.18, 6.04, 6.04, 5.21, 5.21, 4.4, 3.51, 3.51, 3.51, 4.13, 4.1, 4.3, 0.0, -0.0, -0.0, -0.0, -0.0, -1.79, 0.0, 0.0, 0.0, 0.0, 0.0, 0.0, 0.0, 0.0, -10.15, -10.15, -10.15, -10.15, -10.15, -9.94, -9.94, -9.94, -9.66, -9.66, -10.01, -9.72, -9.72, -9.46, -9.48, -9.48, -9.48, -9.48, -9.48, -9.48, -9.19, -9.5, -9.5, -9.82, -9.82, -10.13, -9.84, -9.84, -9.84, -9.5, -8.86, -8.87, -8.23, -7.87, -7.6, -7.24, -6.97, -6.97, -6.58, -6.31, -6.31, -5.89, -5.67, -5.02, -4.8, -4.6, -3.94, -3.49, -2.83, -2.3, -1.67, -0.57, 0.0, 0.59, 1.63, 2.29, 3.0, 3.47, 4.71, 4.65, 4.65, 4.65, 4.55, 4.8, 4.4, 4.4, 4.27, 4.19, 4.8, 5.69, 6.01, 6.32, 6.18, 6.18, 5.46, 4.56, 3.63, 3.49, 3.36, 3.36, 3.36, 4.13, 4.06, 3.32, 0.0, -1.08, -0.0, -0.0, -1.58, -2.24, -2.24, 0.0, 0.0, 0.0, 0.0, 0.0, 0.0, 0.0, -10.15, -10.15, -9.94, -9.94, -9.94, -9.94, -9.94, -9.94, -9.66, -9.66, -9.66, -9.46, -9.46, -9.46, -9.17, -9.48, -9.48, -9.48, -9.48, -9.48, -9.19, -9.5, -9.5, -9.82, -9.82, -10.13, -9.84, -9.84, -9.5, -9.21, -8.87, -8.23, -7.96, -7.6, -7.33, -7.24, -6.97, -6.97, -6.97, -6.31, -6.31, -5.89, -5.67, -5.02, -5.26, -4.6, -3.94, -3.49, -2.97, -2.3, -1.67, -0.57, 0.0, 0.59, 1.1, 1.76, 2.14, 3.47, 4.11, 4.37, 4.41, 4.07, 4.37, 4.17, 4.27, 4.27, 4.27, 4.27, 4.0, 6.18, 6.55, 6.79, 6.32, 6.18, 5.76, 5.21, 4.34, 2.57, 2.57, 2.7, 3.36, 3.25, 2.61, 2.54, 0.82, -3.13, -1.83, -1.13, -1.9, -2.4, -2.68, -2.4, -1.13, -1.08, 0.0, 0.0, 0.0, 0.0, -10.23, -10.23, -9.94, -9.59, -9.59, -9.59, -9.94, -9.71, -9.42, -9.42, -9.42, -9.42, -9.46, -9.46, -9.17, -9.17, -9.17, -9.48, -9.48, -9.19, -9.19, -9.5, -9.5, -9.82, -10.13, -10.13, -10.13, -9.84, -9.21, -9.5, -8.87, -8.23, -8.24, -7.6, -7.33, -6.96, -6.97, -6.97, -6.97, -6.31, -6.31, -5.89, -5.67, -5.23, -5.26, -4.6, -3.94, -3.49, -2.97, -2.3, -1.67, -0.57, 0.0, 0.0, 0.56, 1.1, 1.65, 2.82, 4.11, 4.11, 3.79, 3.79, 4.07, 4.0, 4.0, 3.43, 3.43, 3.64, 4.27, 6.57, 6.6, 6.11, 6.32, 5.89, 5.89, 5.21, 4.34, 3.63, 2.69, 3.49, 3.36, 2.49, 1.7, 0.83, 0.0, -0.89, -3.13, -1.8, -1.98, -2.97, -3.13, -3.39, -2.84, -2.48, -2.48, -1.41, -1.41, -1.41, -9.86, -9.86, -9.86, -9.59, -9.37, -9.37, -9.37, -9.37, -9.08, -9.42, -9.42, -9.42, -9.13, -9.46, -9.17, -9.17, -9.17, -9.17, -9.48, -9.19, -9.5, -9.5, -9.8, -9.82, -9.82, -9.82, -9.82, -9.5, -9.5, -9.21, -8.87, -8.23, -8.24, -7.6, -7.33, -6.96, -6.97, -6.97, -6.7, -6.31, -6.31, -6.31, -5.67, -5.02, -5.26, -4.6, -3.94, -3.49, -3.49, -2.83, -2.19, -1.14, -0.58, 0.0, 0.56, 0.56, 1.12, 2.36, 3.49, 3.49, 3.49, 3.49, 3.49, 3.48, 3.48, 3.43, 3.43, 3.43, 3.88, 4.11, 4.0, 5.37, 5.24, 5.53, 5.1, 4.34, 4.56, 3.49, 2.57, 2.7, 2.59, 1.69, 0.8, 0.81, 0.0, 0.0, -0.94, -1.9, -2.21, -3.39, -3.58, -3.58, -3.35, -2.48, -2.48, -2.48, -2.48, -2.48, -9.86, -9.86, -9.66, -9.37, -9.37, -9.37, -9.37, -9.37, -9.08, -9.08, -9.08, -9.42, -9.13, -9.13, -9.46, -9.17, -9.17, -9.17, -9.19, -9.19, -9.5, -9.5, -9.5, -9.82, -9.82, -9.5, -9.5, -9.5, -9.21, -8.87, -8.59, -8.24, -8.24, -7.6, -7.33, -6.96, -6.7, -6.7, -6.7, -6.31, -6.31, -6.31, -5.67, -5.69, -5.26, -4.6, -3.94, -3.94, -3.49, -2.83, -2.3, -1.14, -0.58, 0.0, 0.0, 0.56, 1.2, 2.16, 2.84, 3.22, 3.22, 3.49, 3.22, 3.49, 2.86, 3.15, 3.15, 3.48, 3.43, 3.72, 3.43, 5.06, 5.37, 4.96, 3.8, 3.63, 3.32, 2.7, 2.57, 1.84, 1.76, 1.69, 0.86, 0.83, 0.79, 0.81, 0.0, 0.0, -0.88, -2.8, -3.58, -4.02, -3.58, -3.39, -2.98, -2.84, -2.84, -2.84, -9.3, -9.3, -9.3, -9.02, -9.37, -9.37, -9.37, -9.37, -9.08, -8.82, -8.82, -8.82, -8.85, -8.85, -8.85, -8.87, -8.87, -9.48, -9.19, -9.19, -9.5, -9.21, -9.5, -9.5, -9.5, -9.5, -9.5, -9.21, -9.21, -8.87, -8.87, -8.24, -8.24, -7.6, -7.33, -6.96, -6.96, -6.96, -6.7, -6.31, -6.31, -6.33, -5.92, -5.69, -5.26, -4.6, -3.94, -3.94, -3.49, -2.97, -2.33, -1.69, -1.16, 0.0, 0.0, 0.0, 0.56, 1.8, 2.36, 3.08, 2.82, 2.82, 2.82, 3.08, 2.84, 2.84, 2.86, 2.86, 3.48, 3.78, 3.43, 3.73, 3.49, 2.83, 2.54, 2.57, 2.57, 2.7, 1.84, 1.68, 0.89, 0.85, 0.86, 0.8, 0.84, 1.66, 0.86, 0.82, 0.0, 0.0, -1.19, -2.84, -3.47, -3.9, -3.9, -4.4, -4.4, -4.4, -9.3, -9.3, -9.3, -9.02, -9.37, -9.37, -9.37, -9.37, -9.08, -8.82, -8.82, -8.82, -8.85, -8.85, -8.85, -8.87, -8.87, -9.48, -9.19, -9.19, -9.5, -9.21, -9.5, -9.5, -9.5, -9.5, -9.5, -9.21, -9.21, -8.87, -8.87, -8.24, -8.24, -7.6, -7.33, -6.96, -6.96, -6.96, -6.7, -6.31, -6.31, -6.33, -5.92, -5.69, -5.26, -4.6, -3.94, -3.94, -3.49, -2.97, -2.33, -1.69, -1.16, 0.0, 0.0, 0.0, 0.56, 1.8, 2.36, 3.08, 2.82, 2.82, 2.82, 3.08, 2.84, 2.84, 2.86, 2.86, 3.48, 3.78, 3.43, 3.73, 3.49, 2.83, 2.54, 2.57, 2.7, 2.7, 1.84, 1.68, 0.89, 0.85, 0.86, 0.86, 1.71, 1.66, 2.45, 1.64, 1.63, 0.85, 0.85, 0.0, -1.03, -1.99, -2.95, -3.48, -3.48, -3.48]}]